GFSNGP_prec_cloud_033.txt.gz
Cloud_Cover
0 0 0 0 0 4 0 1 2 78 98 100 6 35 85 50 5 6 13 2 5 5 5 2 1 3 3 7 5 8 5 4 1 0 48 8 5 32 100 100 100 100 48 38
0 0 5 4 0 0 0 0 2 20 90 82 40 32 20 5 8 5 0 0 0 0 0 0 4 5 3 0 0 3 0 1 5 8 59 100 100 100 100 100 100 100 100 100
5 0 5 0 75 2 5 2 6 81 8 5 5 5 57 0 5 4 1 0 3 5 0 0 0 0 0 0 0 2 5 5 5 7 64 100 100 100 100 100 100 100 100 100
36 1 3 2 2 4 17 0 0 4 4 0 1 4 2 0 0 1 5 1 3 0 0 2 0 2 3 3 5 5 8 6 29 99 100 97 100 100 100 92 96 100 100 100
49 0 5 0 0 0 0 3 0 0 0 0 0 0 0 5 5 5 5 3 5 5 5 5 5 5 5 5 12 17 20 38 96 100 72 100 100 100 100 100 100 100 100 100
5 7 64 1 0 0 0 19 5 0 0 0 0 0 0 1 0 1 5 5 5 36 50 84 90 69 48 32 9 6 36 69 73 50 98 97 55 99 81 100 100 100 100 100
49 51 100 39 1 0 0 0 1 4 5 2 5 5 5 1 0 0 3 2 5 5 6 5 5 5 17 62 74 73 74 87 95 85 86 100 100 99 100 94 94 69 98 89
95 89 100 10 1 0 0 0 0 0 0 2 5 1 1 2 0 0 0 3 4 5 5 5 5 5 15 70 64 72 93 100 100 100 90 99 46 29 67 73 60 17 36 62
17 88 100 26 5 0 1 1 0 0 0 4 12 5 8 5 5 5 3 0 5 5 5 5 5 5 8 76 75 49 11 37 95 100 87 52 43 76 66 19 46 49 56 71
67 100 100 53 5 5 5 5 0 0 0 0 5 5 5 5 5 5 5 5 5 5 5 5 5 42 37 5 5 8 62 98 99 73 100 85 100 78 60 80 59 43 13 5
19 100 98 12 10 46 96 5 2 4 3 3 5 5 5 5 5 5 5 5 5 5 5 17 64 52 42 58 31 91 100 100 99 100 99 100 53 57 77 70 16 5 5 7
99 100 100 100 100 100 100 33 23 5 12 5 5 36 50 52 53 8 14 12 17 8 30 90 86 99 87 60 99 100 99 96 78 82 86 45 82 97 84 36 7 33 10 19
100 100 100 100 97 100 100 100 86 23 91 94 65 60 32 39 36 6 5 5 26 66 100 100 100 100 100 93 53 69 74 96 91 36 71 31 72 53 7 49 90 88 59 78
100 100 79 94 100 100 98 62 100 100 100 100 87 79 56 30 34 57 52 61 100 100 100 95 89 70 80 82 88 81 41 7 5 7 16 6 5 5 5 5 5 14 77 93
100 100 100 100 96 80 99 65 100 100 100 100 93 71 81 88 100 100 100 96 100 100 100 99 99 99 100 97 77 92 54 5 5 5 20 11 5 5 5 5 5 31 8 6
100 100 100 100 100 100 100 100 100 100 100 100 100 98 84 66 98 99 100 100 100 84 100 100 100 99 99 99 66 29 26 11 63 31 37 41 5 5 5 5 24 78 62 84
100 100 100 100 100 100 100 100 100 100 100 100 88 99 100 100 100 100 100 84 90 91 100 100 94 99 79 73 73 66 100 100 91 60 54 30 40 66 16 65 79 98 76 88
100 100 100 100 100 89 100 100 100 100 100 99 96 100 100 100 100 100 100 88 99 100 92 80 86 85 94 100 100 100 93 72 72 44 31 39 40 48 82 100 95 89 67 68
100 100 100 100 100 100 100 100 100 100 100 100 100 100 100 100 100 100 96 96 100 100 100 100 100 100 100 100 100 100 100 98 58 65 63 60 81 100 100 100 96 82 79 99
100 100 100 100 100 100 100 100 100 100 100 100 100 100 100 100 100 100 100 100 100 100 100 100 100 100 100 100 100 100 100 84 99 100 92 100 100 100 100 32 55 65 85 97
100 100 100 100 100 100 100 100 100 100 100 100 100 100 100 100 100 100 100 100 100 100 100 100 100 100 100 100 97 97 100 100 74 93 100 100 100 96 71 69 70 94 94 100
100 100 100 100 100 100 100 100 100 100 100 100 100 100 100 100 100 100 100 100 100 100 100 100 100 100 100 100 100 100 100 98 100 100 100 100 100 96 85 76 73 86 100 100
100 100 100 100 100 100 100 100 100 100 100 100 100 100 100 100 100 100 100 100 100 100 100 100 100 100 100 100 100 100 100 100 100 100 99 100 100 97 81 8 5 83 100 100
100 100 100 100 100 100 100 100 100 100 100 100 100 100 100 100 100 100 100 100 100 100 100 100 100 100 100 100 100 100 100 100 100 70 89 83 100 99 74 25 5 6 73 99
100 100 100 100 100 100 100 100 100 100 100 100 100 100 100 100 100 100 100 100 100 100 100 100 100 100 100 100 100 100 100 100 100 100 100 100 100 98 90 71 72 74 74 97
100 100 100 100 100 100 100 100 100 100 100 100 100 100 100 100 100 100 100 100 100 100 100 100 100 100 100 100 100 100 82 100 100 100 100 100 100 98 96 67 78 89 97 98
100 100 100 100 100 100 100 100 100 100 100 100 100 100 100 100 100 100 100 100 100 100 100 100 100 100 100 100 99 99 100 100 96 100 100 100 100 100 83 82 83 87 100 100

GFSNGP_prec_cloud_036.txt.gz
Cloud_Cover
10 5 12 5 1 13 5 0 5 4 5 16 5 4 5 5 7 75 8 5 9 35 82 63 68 78 8 11 3 4 6 63 37 57 74 87 63 60 51 49 80 96 100 100
51 8 5 5 0 5 5 0 0 0 1 5 3 5 5 40 44 87 91 18 5 5 2 5 5 5 3 1 4 6 8 5 5 5 5 5 21 92 100 94 100 97 100 100
99 5 8 92 4 3 5 3 0 0 4 4 4 1 4 8 5 4 12 30 5 5 5 5 5 5 5 0 0 5 5 5 5 5 5 10 69 95 75 100 100 100 100 100
93 5 87 14 5 2 5 5 0 0 1 0 2 0 5 5 4 0 1 4 2 5 19 5 5 19 5 0 0 4 11 13 5 5 5 5 34 68 100 100 100 100 99 97
100 71 100 98 1 0 50 0 0 0 0 0 0 1 5 0 0 0 0 0 2 5 5 26 100 53 35 5 5 8 12 10 19 6 37 49 98 43 60 88 90 90 99 100
100 100 100 100 5 0 3 3 2 0 0 0 0 0 3 5 5 1 0 0 0 4 15 64 100 100 96 95 75 66 64 38 52 86 90 67 97 100 100 100 96 100 100 97
100 100 100 100 38 0 4 17 0 0 0 0 0 4 26 9 6 10 5 5 5 5 2 5 9 43 60 31 14 12 27 74 94 100 100 96 90 84 43 38 15 31 85 93
100 100 100 100 6 4 11 5 5 6 0 0 0 0 0 0 4 5 5 5 5 5 8 50 22 26 41 55 76 86 93 92 95 78 55 53 48 38 16 25 29 10 38 68
100 100 100 100 100 91 17 15 33 11 0 0 0 0 0 0 5 5 42 49 99 97 77 51 10 5 6 6 32 67 65 22 17 67 92 34 5 5 25 54 48 34 9 5
100 100 96 96 100 100 100 6 100 5 5 5 5 5 5 1 0 4 5 36 68 70 70 65 45 38 44 35 5 5 22 23 12 22 32 20 8 32 71 60 46 9 40 6
90 90 39 35 47 61 100 100 96 96 69 33 5 3 5 5 4 0 4 5 5 5 8 38 55 36 15 5 5 5 5 5 11 35 25 57 59 80 48 36 77 11 5 5
100 100 100 99 21 91 100 100 76 80 76 68 6 5 5 5 88 12 5 5 9 29 38 79 64 20 5 81 16 5 5 5 7 62 83 64 53 10 55 10 5 5 5 43
100 100 91 99 100 100 100 99 100 64 42 100 67 5 5 100 100 31 5 20 6 53 63 94 60 5 100 23 5 5 5 5 14 26 11 11 5 5 5 5 5 7 5 53
100 100 100 100 100 100 100 100 100 90 26 32 25 15 99 100 97 10 10 5 39 59 99 82 20 29 82 58 73 60 12 5 5 5 5 5 5 5 5 18 36 5 7 8
100 100 100 100 100 100 100 100 100 100 81 5 54 100 100 100 74 82 100 100 82 99 100 95 74 87 78 68 66 86 65 41 48 29 37 5 5 6 73 40 12 24 22 5
100 100 100 100 100 100 100 100 100 100 92 68 91 96 93 100 100 100 71 100 100 100 100 100 99 100 100 100 100 94 61 48 55 45 5 13 84 100 72 76 49 12 5 60
100 100 100 100 100 100 100 100 100 100 100 100 100 100 100 100 100 100 100 100 100 100 100 100 100 99 100 100 100 100 81 63 71 84 100 100 100 100 100 48 5 5 42 98
100 100 100 100 100 100 100 100 100 100 100 100 100 100 100 100 100 100 100 100 100 100 100 100 100 100 100 100 100 100 100 100 100 100 100 100 100 100 26 52 59 69 86 94
100 100 100 100 100 100 100 100 100 100 100 100 100 100 100 100 100 100 100 100 100 100 100 100 100 100 100 100 100 100 100 100 100 100 100 100 87 79 90 96 88 100 100 100
100 100 100 100 100 100 100 100 100 100 100 100 100 100 100 100 100 100 100 100 100 100 100 100 100 100 100 100 100 100 100 100 100 100 100 92 100 100 100 100 100 100 100 100
100 100 100 100 100 100 100 100 100 100 100 100 100 100 100 100 100 100 100 100 100 100 100 100 100 100 100 100 100 100 100 100 100 100 100 100 100 100 100 100 100 100 100 100
100 100 100 100 100 100 100 100 100 100 100 100 100 100 100 100 100 100 100 100 100 100 100 100 100 100 100 100 100 100 100 100 100 100 100 100 100 100 100 100 100 100 100 100
100 100 100 100 100 100 100 100 100 100 100 100 100 100 100 100 100 100 100 100 100 100 100 100 100 100 100 100 100 100 100 100 100 100 100 100 100 100 100 100 100 100 100 100
100 100 100 100 100 100 100 100 100 100 100 100 100 100 100 100 100 100 100 100 100 100 100 100 100 100 100 100 100 100 100 100 100 100 100 100 100 100 100 100 100 100 100 100
100 100 100 100 100 100 100 100 100 100 100 100 100 100 100 100 100 100 100 100 100 100 100 100 100 100 100 100 100 100 100 100 100 100 100 100 100 100 100 100 100 100 100 100
100 100 100 100 100 100 100 100 100 100 100 100 100 100 100 100 100 100 100 100 100 100 100 100 100 100 100 100 100 100 100 100 100 100 100 100 100 100 100 100 100 100 100 100
100 100 100 100 100 100 100 100 100 100 100 100 100 100 100 100 100 100 100 100 100 100 100 100 100 100 100 100 100 100 100 100 100 100 100 100 100 100 100 100 100 100 100 100

GFSNGP_prec_cloud_039.txt.gz
Cloud_Cover
100 100 99 100 100 82 100 97 99 9 100 71 89 87 78 88 38 1 0 2 2 0 0 4 7 98 100 99 86 39 50 85 100 100 87 96 100 100 100 100 100 100 100 100
100 100 83 99 100 95 90 100 66 27 93 97 100 7 5 3 12 5 5 36 13 5 5 4 1 14 61 77 90 88 64 74 67 72 98 94 99 99 71 88 95 100 100 100
100 100 100 59 100 53 49 5 17 29 5 24 53 21 3 2 0 1 2 5 5 5 14 4 4 5 5 5 2 1 1 1 1 1 4 6 9 18 7 65 99 77 97 100
100 100 40 100 100 99 56 5 5 5 5 5 86 34 0 2 5 4 0 1 1 1 0 5 54 90 33 5 5 5 5 5 5 5 5 5 5 5 49 63 74 53 66 67
100 100 100 100 100 100 92 84 5 26 35 46 5 0 0 0 0 0 0 0 0 1 1 5 5 71 55 5 5 5 5 6 25 45 47 49 62 89 91 48 60 83 81 86
100 100 100 100 100 95 60 100 2 58 24 5 5 0 0 0 0 0 0 0 5 6 7 5 5 5 5 5 5 5 9 45 28 17 59 74 95 100 100 100 99 95 100 100
100 99 100 100 100 100 87 94 6 36 11 6 5 4 0 0 0 0 3 5 5 5 22 24 22 6 5 10 5 5 37 23 11 56 92 100 99 99 98 100 99 90 70 73
100 100 100 100 100 100 80 68 5 5 7 99 5 5 0 1 0 0 0 0 0 3 2 5 5 6 31 54 68 50 50 74 98 99 94 99 94 98 93 91 98 96 78 30
100 100 100 100 100 100 32 27 15 5 80 100 5 5 4 5 0 0 0 0 3 5 3 5 5 5 63 88 100 100 99 100 98 89 83 90 95 92 86 78 61 56 18 10
100 100 100 100 100 100 100 100 73 91 100 100 73 12 30 5 5 5 5 0 4 9 16 5 7 21 63 100 90 65 35 62 75 56 68 94 70 72 69 12 5 5 5 39
100 100 100 100 100 100 72 95 67 99 100 96 100 100 95 12 5 5 5 5 5 78 39 58 5 10 73 85 46 68 80 78 59 97 86 61 14 5 5 8 5 5 5 36
100 100 100 100 100 100 100 100 69 6 5 10 96 100 100 100 5 28 21 5 59 100 54 43 5 8 72 46 64 6 9 54 100 70 10 5 5 5 5 5 5 5 38 34
100 100 100 100 100 86 100 100 100 100 100 79 100 100 100 100 7 5 27 10 100 100 100 93 92 29 100 100 78 30 53 84 14 30 30 5 5 5 5 40 35 99 40 5
100 100 100 100 100 100 100 89 100 100 87 56 100 100 100 100 100 87 94 49 83 100 100 100 94 100 100 100 99 97 91 75 86 92 100 96 90 75 44 18 21 24 36 10
100 100 100 100 100 100 100 100 100 99 97 93 99 100 100 93 100 81 57 69 99 80 100 100 100 100 100 100 100 100 100 100 99 86 98 100 98 99 84 84 65 53 83 100
100 100 100 100 100 100 100 100 100 95 100 78 99 97 100 100 100 100 100 100 85 93 100 86 100 100 100 100 100 100 100 100 100 100 98 100 100 100 100 100 100 100 100 100
100 100 100 100 100 100 100 93 100 100 91 100 100 100 100 100 100 100 100 100 100 100 100 100 100 100 100 100 100 100 100 100 100 100 100 100 100 100 100 100 100 100 100 100
100 100 100 100 88 100 100 100 100 100 100 100 100 100 100 100 100 100 100 100 100 100 100 100 100 100 100 100 100 100 100 100 100 100 100 100 100 100 100 100 100 100 100 100
100 100 100 98 97 98 100 100 100 100 100 100 100 100 100 100 100 100 100 100 100 100 100 100 100 100 100 100 100 100 100 100 100 100 100 100 100 100 100 100 100 100 100 100
100 100 100 100 100 100 100 100 100 100 100 100 100 100 100 100 100 100 100 100 100 100 100 100 100 100 100 100 100 100 100 100 100 100 100 100 100 100 100 100 100 100 100 100
100 100 100 100 100 100 100 100 100 100 100 100 100 100 100 100 100 100 100 100 100 100 100 100 100 100 100 100 100 100 100 100 100 100 100 100 100 100 100 100 100 100 100 100
100 100 100 100 100 100 100 100 100 100 100 100 100 100 100 100 100 100 100 100 100 100 100 100 100 100 100 100 100 100 100 100 100 100 100 100 100 100 100 100 100 100 100 100
100 100 100 100 100 100 100 100 100 100 100 100 100 100 100 100 100 100 100 100 100 100 100 100 100 100 100 100 100 100 100 100 100 100 100 100 100 100 100 100 100 100 100 100
100 100 100 100 100 100 100 100 100 100 100 100 100 100 100 100 100 100 100 100 100 100 100 100 100 100 100 100 100 100 100 100 100 100 100 100 100 100 100 100 100 100 100 100
100 100 100 100 100 100 100 100 100 100 100 100 100 100 100 100 100 100 100 100 100 100 100 100 100 100 100 100 100 100 100 100 100 100 100 100 100 100 100 100 100 100 100 100
100 100 100 100 100 100 100 100 100 100 100 100 100 100 100 100 100 100 100 100 100 100 100 100 100 100 100 100 100 100 100 100 100 100 100 100 100 100 100 100 100 100 100 100
100 100 100 100 100 100 100 100 100 100 100 100 100 100 100 100 100 100 100 100 100 100 100 100 100 100 100 100 100 100 100 100 100 100 100 100 100 100 100 100 100 100 100 100

GFSNGP_prec_cloud_045.txt.gz
Cloud_Cover
100 100 100 100 100 100 96 48 40 100 100 100 59 77 81 5 5 17 73 37 1 0 2 27 0 0 0 0 0 7 18 2 33 52 44 54 100 67 60 62 100 100 100 100
100 100 100 100 100 100 100 100 100 100 100 100 100 100 100 60 88 3 72 72 4 0 0 1 7 0 0 0 0 0 6 96 70 26 49 94 100 100 100 100 100 100 100 100
100 100 100 99 100 100 100 98 99 100 100 100 99 75 100 99 6 82 54 38 100 5 0 0 0 0 0 0 0 0 30 56 49 59 62 93 98 100 100 100 100 100 100 100
100 100 100 94 100 100 100 100 100 100 100 100 98 99 100 100 82 43 8 5 3 0 0 0 0 0 0 0 0 0 1 46 86 82 98 89 24 89 100 100 100 98 87 98
100 100 100 100 100 100 100 100 100 100 100 100 100 100 81 100 38 89 82 54 26 1 0 0 0 0 0 0 0 0 21 11 10 6 7 84 48 72 71 62 36 16 5 46
100 100 100 100 100 100 88 31 100 100 100 96 100 22 100 100 100 29 100 0 1 5 5 0 0 0 0 0 3 0 0 2 5 5 4 0 0 0 0 0 3 5 7 64
100 96 88 100 100 100 68 72 100 100 96 93 88 100 98 100 100 56 95 27 0 0 0 1 5 5 1 0 0 0 0 0 1 0 4 0 5 4 3 7 41 96 72 75
100 66 9 34 100 100 64 44 100 100 24 14 54 37 100 100 100 45 42 86 5 10 45 5 15 42 5 8 5 5 2 5 5 5 5 5 5 27 94 80 64 46 81 100
100 100 74 100 100 100 100 100 100 44 68 65 99 92 100 100 100 11 5 66 99 30 52 7 62 61 8 8 14 52 58 24 11 5 5 11 25 6 5 16 5 86 100 99
100 100 100 100 59 100 100 84 100 100 100 100 95 100 100 100 100 5 27 29 21 69 45 5 79 11 7 5 9 95 100 100 100 7 5 93 100 100 87 75 70 82 68 95
100 100 100 82 100 100 100 100 100 100 100 100 100 100 100 100 100 47 6 5 16 78 97 21 66 25 38 5 8 63 98 99 38 17 67 100 100 100 84 100 100 100 100 99
100 100 93 21 100 100 100 100 100 100 100 100 100 100 100 100 100 100 100 64 100 100 32 8 7 47 39 48 5 59 100 93 35 96 100 100 100 98 100 100 100 100 100 100
80 50 100 100 58 100 100 100 100 100 100 100 100 100 100 100 100 100 6 67 100 25 5 91 100 100 83 65 34 82 97 71 93 100 100 100 100 100 100 100 100 100 100 100
31 90 100 100 100 96 100 100 100 100 100 98 100 100 91 100 100 100 100 100 97 100 100 100 100 93 99 99 100 100 100 100 100 100 100 100 100 100 100 100 100 100 100 100
100 100 100 100 100 100 100 100 100 100 100 100 100 89 100 100 100 100 100 96 96 100 100 100 100 100 100 100 100 100 100 100 100 100 100 100 100 100 100 100 100 100 100 100
100 86 100 100 100 100 100 100 100 100 100 100 100 63 94 100 100 100 100 98 100 100 100 100 100 100 100 100 100 100 100 100 100 100 100 100 100 100 100 100 100 100 100 100
100 100 100 100 100 100 100 100 100 100 100 100 100 100 100 100 100 100 100 100 100 100 100 100 100 100 100 100 100 100 100 100 100 100 100 100 100 100 100 100 100 100 100 100
100 100 100 100 100 100 100 100 100 100 100 100 100 100 100 100 100 100 100 100 100 100 100 100 100 100 100 100 100 100 100 100 100 100 100 100 100 100 100 100 100 100 100 100
100 100 100 100 100 100 100 100 100 100 100 100 100 100 100 100 100 100 100 100 100 100 100 100 100 100 100 100 100 100 100 100 100 100 100 100 100 100 100 100 100 100 100 100
100 100 100 100 100 100 100 100 100 100 100 100 100 100 100 100 100 100 100 100 100 100 100 100 100 100 100 100 100 100 100 100 100 100 100 100 100 100 100 100 100 100 100 100
100 100 100 100 100 100 100 100 100 100 100 100 100 100 100 100 100 100 100 100 100 100 100 100 100 100 100 100 100 100 100 100 100 100 100 100 100 100 100 100 100 100 100 100
100 100 100 100 100 100 100 100 100 100 100 100 100 100 100 100 100 100 100 100 100 100 100 100 100 100 100 100 100 100 100 100 100 100 100 100 100 100 100 100 100 100 100 100
100 100 100 100 100 100 100 100 100 100 100 100 100 100 100 100 100 100 100 100 100 100 100 100 100 100 100 100 100 100 100 100 100 100 100 100 100 100 100 100 100 100 100 99
100 100 100 100 100 100 100 100 100 100 100 100 100 100 100 100 100 100 100 100 100 100 100 100 100 100 100 100 100 100 100 100 100 100 100 100 100 100 100 97 100 100 100 100
100 100 100 100 100 100 100 100 100 100 100 100 95 100 100 100 100 100 100 100 100 100 100 100 100 100 100 100 100 100 100 100 100 100 100 99 100 98 79 78 100 100 100 100
100 100 100 100 100 99 100 100 100 100 100 100 100 100 100 93 97 100 98 95 95 92 86 89 90 95 90 64 86 98 89 54 79 73 81 89 76 50 42 87 90 85 84 84
95 98 95 100 100 100 100 92 100 100 84 97 99 98 78 44 70 80 80 74 24 16 16 14 60 68 26 8 18 72 43 5 60 99 98 21 50 97 94 76 61 62 61 60

GFSNGP_prec_cloud_048.txt.gz
Cloud_Cover
100 100 100 100 100 100 100 100 100 100 90 100 98 36 16 100 100 100 98 8 5 5 0 4 0 0 0 0 2 1 3 73 100 100 100 100 100 100 100 100 100 100 100 100
100 100 100 100 100 100 100 100 100 100 100 100 100 98 39 98 100 100 74 97 12 22 1 70 4 5 0 0 0 0 5 70 87 100 100 100 100 100 100 100 100 100 100 100
93 100 100 100 100 100 100 100 100 100 100 100 100 99 62 34 57 100 100 34 62 45 5 0 5 0 0 4 9 1 22 50 100 100 100 100 94 90 100 100 100 100 100 100
95 100 100 94 100 100 100 100 100 100 100 100 100 100 95 7 20 100 100 100 100 61 5 5 5 0 0 35 77 99 100 100 100 100 100 100 100 100 100 100 100 100 100 100
100 100 77 7 100 100 100 100 100 100 100 100 100 100 100 100 97 100 100 100 98 96 29 90 5 5 4 5 50 100 100 100 100 100 100 100 100 100 100 100 100 100 100 100
100 100 100 98 100 100 100 100 100 100 100 100 97 8 40 27 36 98 100 100 100 100 65 72 100 6 5 5 5 5 34 53 98 100 100 100 94 6 32 96 100 100 76 66
100 100 83 72 100 100 100 100 100 100 83 96 60 7 90 24 84 100 95 73 100 100 100 100 84 2 3 0 3 5 5 5 20 33 5 3 5 5 5 6 1 8 57 28
90 100 100 99 100 100 100 100 100 100 87 8 5 43 51 80 83 99 100 88 100 100 100 100 100 30 26 4 1 0 1 5 2 4 2 0 3 5 0 2 5 70 54 82
98 100 100 100 100 100 93 100 100 100 88 16 17 17 92 100 77 90 100 94 100 100 100 100 77 18 62 7 5 39 94 38 5 5 5 5 5 5 5 9 77 100 96 52
100 100 100 100 100 100 98 100 100 61 100 97 85 81 91 93 84 97 98 100 100 100 100 100 100 100 100 100 100 100 6 5 5 8 5 18 40 49 63 93 60 30 43 49
100 100 100 100 100 100 100 100 100 99 94 100 100 67 48 89 100 100 100 100 100 100 100 100 100 100 100 100 100 97 36 6 5 11 25 9 26 66 90 94 67 92 79 98
100 100 100 100 100 100 100 100 100 100 98 100 100 99 100 100 100 84 100 100 100 100 100 100 100 100 100 100 100 100 57 52 82 97 98 53 84 100 94 100 100 100 100 100
100 100 100 100 100 100 100 100 100 100 100 100 96 100 100 99 100 100 100 100 100 100 100 100 100 100 100 100 100 100 96 88 100 95 75 80 95 97 100 100 100 100 100 100
100 100 100 100 100 100 100 100 100 100 100 100 100 100 100 100 100 100 100 100 100 100 100 100 100 100 100 100 100 100 100 100 100 100 100 100 100 100 100 100 100 100 100 100
100 100 100 100 100 100 100 94 92 97 100 100 100 100 92 71 94 100 100 100 100 100 100 100 100 100 100 100 100 100 100 100 100 100 100 100 100 100 100 100 100 100 100 100
100 100 100 100 100 100 100 96 99 100 100 100 100 100 100 100 100 100 100 100 100 100 100 100 100 100 100 100 100 100 100 100 100 100 100 100 100 100 100 100 100 100 100 100
100 100 100 100 100 100 100 100 100 100 96 100 100 100 100 100 100 100 100 100 100 100 100 100 100 100 100 100 100 100 100 100 100 100 100 100 100 100 100 100 100 100 100 100
100 100 100 100 100 100 100 100 100 99 100 99 100 94 100 100 100 100 100 100 100 100 100 100 100 100 100 100 100 100 100 100 100 100 100 100 100 100 100 100 100 100 100 100
100 100 100 100 100 100 100 100 100 100 100 100 100 100 100 100 100 100 100 100 100 100 100 100 100 100 100 100 100 100 100 100 100 100 100 100 100 100 100 100 100 100 100 100
100 100 100 100 100 100 100 100 100 100 100 100 100 100 100 100 100 100 100 100 100 100 100 100 100 100 100 100 100 100 100 100 100 100 100 100 100 100 100 100 100 100 100 100
100 100 100 100 100 100 100 100 100 100 100 100 100 100 100 100 100 100 100 100 100 100 100 100 100 100 100 100 100 100 100 100 100 100 100 100 100 100 100 100 100 100 100 100
100 100 100 100 100 100 100 100 100 100 100 100 100 100 100 100 100 100 100 100 100 100 100 100 100 100 100 100 100 100 100 100 100 100 100 100 100 100 100 100 100 100 100 100
100 100 100 100 100 100 100 100 100 100 100 100 100 100 100 100 100 100 100 100 100 100 100 100 100 99 84 95 99 100 100 100 100 100 100 100 100 100 100 100 100 100 100 100
100 100 100 100 100 100 100 100 100 100 100 100 100 100 100 100 100 100 100 100 100 96 86 86 100 99 98 100 100 100 100 100 100 100 100 100 100 100 100 100 100 95 72 100
100 100 100 100 100 100 100 100 100 100 100 100 100 100 100 100 100 100 98 100 85 82 95 72 57 13 63 93 92 82 100 100 100 97 100 100 100 100 100 100 98 86 81 86
100 100 100 100 100 100 100 100 100 100 100 100 100 100 96 99 95 86 58 77 59 70 98 76 30 13 31 79 100 96 82 100 98 93 100 100 100 100 100 99 88 87 97 100
100 100 100 100 100 100 100 100 100 100 85 53 84 99 86 86 83 78 59 9 68 73 69 62 45 41 36 38 10 82 90 85 32 10 49 88 100 100 100 70 77 84 89 100

GFSNGP_prec_cloud_054.txt.gz
Cloud_Cover
100 100 100 78 100 93 42 82 47 100 87 88 99 56 5 57 40 100 98 100 100 100 43 75 96 92 12 4 0 0 0 0 0 0 1 5 96 100 100 100 100 100 100 100
100 100 100 100 100 5 7 5 74 37 100 100 100 98 76 100 100 100 5 96 100 100 100 91 65 94 80 100 71 6 0 0 0 0 0 0 0 37 100 100 100 100 100 100
100 100 100 100 100 20 58 94 61 5 54 100 90 100 100 100 100 100 7 47 100 100 100 100 100 97 100 100 100 100 63 0 0 0 0 0 0 14 75 100 100 100 100 100
100 100 100 100 100 100 40 90 100 7 8 56 99 68 100 100 100 100 77 17 76 100 100 100 100 100 100 100 100 100 100 98 49 1 0 0 44 93 100 100 100 100 100 100
100 100 100 100 100 100 100 100 100 98 98 100 100 100 100 99 100 93 98 85 68 98 100 100 93 100 100 100 100 100 100 100 100 100 100 95 100 100 100 100 100 100 100 100
100 100 100 100 100 100 100 100 100 100 100 100 100 100 100 100 100 100 100 99 99 100 100 100 70 100 100 86 29 95 100 100 100 100 100 100 100 100 100 100 100 100 100 100
100 100 73 100 100 100 100 74 100 100 100 100 100 100 100 100 100 100 98 100 100 100 100 100 100 100 100 94 100 99 100 100 100 100 100 100 100 100 100 100 100 100 100 100
97 100 31 2 2 15 64 8 20 92 84 100 85 96 100 100 100 100 100 100 100 100 100 100 100 100 100 100 100 100 100 100 100 100 100 100 100 100 100 100 100 100 100 100
2 4 0 0 0 4 27 5 32 3 5 41 100 78 16 68 99 98 100 100 100 100 100 100 100 100 100 100 100 100 100 100 100 100 100 100 100 100 100 100 100 100 100 100
2 0 0 0 0 28 99 99 100 100 98 96 75 88 82 99 91 99 100 100 100 100 100 100 100 100 100 96 100 99 100 100 100 100 100 100 100 100 100 100 100 100 100 100
2 0 0 0 18 0 89 36 100 100 100 100 100 100 97 99 94 87 100 100 97 100 100 100 100 57 86 86 100 100 99 100 100 100 100 100 100 100 100 100 100 100 100 100
1 84 99 70 77 0 44 100 97 100 100 100 100 100 100 100 100 100 83 100 100 100 100 100 100 98 100 100 100 89 91 95 100 100 96 100 100 100 100 100 100 100 100 100
96 66 98 99 100 76 78 100 100 100 100 100 100 100 100 100 74 56 97 99 100 98 100 100 100 100 97 100 100 100 100 93 100 91 89 100 100 100 100 100 100 100 100 100
100 67 91 100 99 49 30 100 100 100 100 100 100 100 100 100 94 85 100 100 100 100 100 100 100 100 100 100 100 100 100 100 100 100 100 100 100 100 100 100 100 100 100 100
100 100 100 100 100 92 65 100 100 100 100 100 100 100 100 100 99 100 100 100 100 100 100 100 100 100 100 100 100 100 100 100 100 100 100 100 100 100 100 100 100 100 100 100
98 100 100 100 100 99 100 100 100 100 100 100 100 100 100 100 100 100 100 100 100 100 100 100 100 100 100 100 100 100 100 100 100 100 100 100 100 100 100 100 100 100 100 100
100 100 100 100 100 100 100 100 100 100 100 100 100 100 100 100 100 100 100 100 100 100 100 100 100 100 100 100 100 100 100 100 100 100 100 100 100 100 100 100 100 100 100 100
100 100 100 100 100 100 100 100 100 100 100 100 100 100 100 100 100 100 100 100 100 100 100 100 100 100 100 100 100 100 100 100 100 100 100 100 100 100 100 100 100 100 100 100
100 100 100 100 100 100 100 100 100 100 100 100 100 100 100 100 100 100 100 100 100 100 100 100 100 100 100 100 100 100 100 100 100 100 100 100 100 100 100 100 100 100 100 100
100 100 100 100 100 100 100 100 100 100 100 100 100 100 94 100 100 100 100 100 100 100 100 100 96 100 100 100 100 100 100 100 100 100 100 100 89 99 100 100 100 100 100 99
100 100 100 100 100 100 100 100 100 100 100 100 100 100 100 100 100 100 100 100 100 100 100 98 100 100 100 100 100 100 100 100 100 100 98 87 80 67 72 79 98 100 100 100
100 100 100 100 100 100 100 100 100 100 100 100 100 100 100 100 98 100 100 100 100 100 99 100 100 100 100 100 78 81 77 68 65 73 86 46 44 91 100 100 100 100 100 100
100 100 100 100 100 100 100 100 100 100 100 100 100 100 100 100 100 100 100 100 100 100 100 100 100 100 100 85 46 42 44 52 89 97 100 100 100 100 100 100 100 100 100 100
100 100 100 100 100 100 100 100 100 100 100 100 100 100 100 100 100 100 100 100 100 100 100 100 100 100 100 84 99 100 100 100 100 100 100 100 100 100 100 100 100 100 100 100
100 100 98 100 100 100 100 100 100 100 100 100 100 100 100 83 51 100 84 83 93 100 99 96 100 92 96 100 100 100 100 100 100 100 100 100 100 100 100 100 100 99 100 100
100 100 100 100 100 100 100 100 100 100 99 100 100 100 95 86 73 42 5 26 5 49 80 77 52 56 87 100 100 100 98 63 73 77 100 100 100 100 100 100 100 100 100 100
100 100 100 100 100 100 100 100 100 100 100 91 98 100 100 67 67 30 79 82 89 100 100 100 96 72 100 100 100 100 100 100 100 100 100 100 100 100 100 100 100 100 100 100

GFSNGP_prec_cloud_057.txt.gz
Cloud_Cover
100 100 92 86 99 20 5 78 100 100 100 100 100 100 39 80 40 50 91 100 100 100 100 5 14 100 12 5 7 3 4 0 0 0 0 0 1 1 11 64 100 100 100 100
100 100 100 100 100 100 100 100 74 5 55 100 100 100 100 97 100 83 37 24 100 100 100 96 88 14 37 54 5 95 26 15 6 0 5 0 0 0 0 0 0 60 76 100
100 100 100 100 100 100 100 100 100 92 44 87 14 100 100 100 100 100 100 100 100 64 100 100 100 100 99 93 28 15 100 100 100 99 34 17 28 4 4 1 0 0 26 89
100 100 100 100 100 100 100 94 95 100 97 72 81 100 100 100 100 99 100 84 99 100 100 100 100 100 100 100 100 8 100 88 100 100 100 100 100 100 95 53 27 29 50 90
100 100 100 100 100 100 100 100 99 7 27 83 96 61 100 100 100 100 90 100 84 83 100 96 91 90 100 100 100 100 69 100 48 56 84 100 100 100 100 100 100 100 100 100
100 100 100 100 100 100 100 100 78 14 5 5 5 5 5 78 63 100 100 100 74 100 100 100 100 84 56 100 100 100 100 88 100 98 100 100 100 100 100 100 100 100 100 100
100 100 100 100 100 99 100 64 100 100 74 26 13 5 24 100 100 100 100 100 100 100 100 100 100 100 99 64 100 100 100 100 94 100 100 100 100 100 100 100 100 100 100 100
100 100 100 100 100 100 100 100 100 100 100 100 63 72 100 100 100 100 100 100 100 100 100 100 100 100 100 100 100 100 100 100 100 100 100 100 100 100 100 100 100 100 100 100
22 86 100 61 53 100 100 100 100 100 100 100 100 100 100 100 100 100 100 100 100 100 100 100 100 100 100 100 100 100 100 100 100 100 100 100 100 100 100 100 100 100 100 100
0 0 2 6 5 5 4 5 5 5 5 19 51 67 90 93 62 100 95 97 100 100 100 100 100 100 100 100 100 100 100 100 100 100 100 100 100 100 100 100 100 100 100 100
0 0 0 13 54 40 3 0 1 0 2 5 14 31 100 20 58 97 100 95 100 100 100 100 100 100 100 100 100 100 100 100 100 100 100 100 100 100 100 100 100 100 100 100
5 43 95 43 87 70 40 3 0 24 22 5 78 100 100 96 77 83 100 100 100 100 100 100 100 100 100 100 100 100 100 100 100 100 100 100 100 100 100 100 100 100 100 100
78 77 95 74 99 100 98 69 47 5 6 35 100 100 100 100 100 100 100 100 100 100 100 100 100 100 100 100 100 100 100 100 100 100 100 100 100 100 100 100 100 100 100 100
95 37 97 100 96 74 100 100 100 98 83 92 100 100 100 100 100 100 100 100 100 100 100 100 100 100 100 100 100 100 100 100 100 100 100 100 100 100 100 100 100 100 100 100
100 100 100 100 100 100 100 100 98 86 85 98 100 100 100 100 100 100 100 100 100 100 100 100 100 100 100 100 100 100 100 100 100 100 100 100 100 100 100 100 100 100 100 100
88 100 100 100 100 100 100 100 100 100 100 100 100 100 100 100 100 100 100 100 100 100 100 100 100 100 100 100 100 100 100 100 100 100 100 100 100 100 100 100 100 100 100 100
100 100 100 100 100 97 100 100 100 100 100 100 100 100 100 100 100 100 100 100 100 100 100 100 100 100 100 100 100 100 100 100 100 100 100 100 100 100 100 100 100 100 100 100
100 100 99 100 100 98 100 100 100 100 100 100 100 100 100 100 100 100 100 100 100 100 100 100 100 100 100 100 100 100 100 100 100 100 100 100 100 100 100 100 100 100 100 100
96 100 100 100 100 100 100 100 100 100 100 100 100 100 100 100 100 100 100 100 100 100 100 100 100 100 100 100 100 100 100 100 100 100 100 100 100 100 100 100 100 100 100 100
100 100 100 100 100 100 100 100 100 100 100 100 100 100 100 100 100 100 100 100 100 100 100 100 100 100 100 100 100 100 100 100 100 100 100 100 100 100 100 93 98 100 100 100
100 100 100 100 100 100 100 100 100 100 100 100 100 100 100 100 100 99 100 100 100 99 96 87 100 100 100 100 96 100 100 100 100 100 87 96 91 99 82 83 65 81 99 100
100 100 100 100 100 100 100 100 100 100 100 100 100 100 100 100 100 100 100 100 100 100 100 100 100 100 100 100 98 100 100 100 98 96 100 100 91 89 100 88 91 100 100 100
100 100 100 100 100 100 100 100 100 100 100 100 100 100 100 100 100 100 100 100 100 100 100 100 100 100 100 97 91 100 100 100 100 100 85 74 54 67 80 99 100 96 83 72
100 100 100 100 100 100 100 100 100 100 100 100 100 100 100 100 100 100 100 100 100 100 94 88 77 69 63 90 95 97 97 90 76 44 22 80 98 100 100 97 96 100 90 75
100 100 100 100 100 100 100 100 100 100 100 100 100 100 100 100 100 100 100 96 60 16 5 13 47 66 78 99 99 75 58 27 18 10 40 92 100 100 100 100 100 97 94 92
100 100 100 100 100 100 100 100 100 100 100 100 100 100 100 90 77 81 55 22 5 7 12 5 51 72 100 95 91 88 90 89 91 96 91 100 100 100 96 87 77 70 86 98
95 88 76 66 39 14 10 6 27 95 72 82 99 100 100 86 33 5 52 46 68 12 5 21 77 85 100 100 92 78 87 96 81 100 100 100 97 93 76 83 97 99 100 100

GFSNGP_prec_cloud_060.txt.gz
Cloud_Cover
100 100 100 100 100 100 100 100 93 100 98 100 100 100 100 100 100 100 100 82 26 65 97 100 100 96 100 5 84 69 5 4 1 4 16 3 0 0 2 0 15 82 93 45
100 100 100 100 100 100 100 100 100 100 88 69 98 100 100 100 100 100 100 97 61 93 98 99 80 66 5 13 15 100 100 36 1 0 5 5 4 10 43 5 5 30 4 1
100 100 100 100 100 100 100 100 97 95 91 96 56 100 100 100 100 100 100 100 100 100 100 100 83 42 100 29 32 31 90 100 98 32 5 5 5 9 39 28 42 81 92 68
100 100 100 100 100 100 100 78 70 89 48 37 51 100 100 100 100 100 94 12 100 100 100 100 100 100 100 100 100 100 9 21 100 100 78 57 91 100 79 41 21 87 98 84
100 100 100 100 100 100 100 98 91 10 5 5 5 26 62 74 100 100 100 30 92 100 100 100 100 100 100 100 100 74 25 27 80 67 100 100 98 100 100 99 56 86 87 100
100 91 100 100 100 100 100 100 5 6 5 5 6 57 5 30 99 100 100 100 100 99 100 23 93 100 100 100 100 100 100 100 100 86 60 98 100 100 100 100 100 100 100 100
100 100 100 100 100 100 100 100 97 78 37 12 5 15 37 40 7 31 96 100 100 100 96 99 100 100 100 100 100 100 100 100 100 100 100 100 87 99 100 100 100 100 100 100
99 100 100 100 100 100 100 100 100 100 100 100 86 40 5 5 5 5 14 49 84 96 100 100 100 100 100 100 100 100 100 100 100 100 100 100 100 100 100 100 100 100 100 100
93 96 77 100 100 100 100 100 100 100 100 100 100 94 48 13 8 43 38 54 23 51 96 100 100 100 100 100 100 100 100 100 100 100 100 100 100 100 100 100 100 100 100 100
100 100 100 100 100 100 100 100 100 100 100 100 100 73 63 90 100 76 35 100 100 100 100 100 100 100 100 100 100 100 100 100 100 100 100 100 100 100 100 100 100 100 100 100
100 97 83 100 100 99 100 100 100 100 100 100 100 100 100 100 100 100 100 92 100 100 100 100 100 100 100 100 100 100 100 100 100 100 100 100 100 100 100 100 100 100 100 100
83 18 5 68 100 5 1 3 1 1 2 1 4 48 70 86 100 66 84 84 100 100 100 100 100 100 100 100 100 100 100 100 100 100 100 100 100 100 100 100 100 100 100 100
16 41 35 76 44 22 6 5 5 19 8 9 44 75 91 89 98 100 100 100 100 100 100 100 100 100 100 100 100 100 100 100 100 100 100 100 100 100 100 100 100 100 100 100
95 50 56 100 100 78 63 44 96 89 91 75 82 100 100 100 100 100 100 100 100 100 100 100 100 100 100 100 100 100 100 100 100 100 100 100 100 100 100 100 100 100 100 100
100 65 99 100 100 100 100 100 100 100 100 100 95 100 100 100 100 100 100 100 100 100 100 100 100 100 100 100 100 100 100 100 100 100 100 100 100 100 100 100 100 100 100 100
57 98 100 100 100 100 100 100 97 100 100 100 100 100 100 100 100 100 100 100 99 100 100 100 100 100 100 100 100 100 100 100 100 100 100 100 100 100 100 100 100 100 100 100
81 100 100 95 100 100 100 100 100 100 100 100 100 100 100 100 100 100 100 100 100 100 100 100 100 100 100 100 100 100 100 100 100 100 100 100 100 100 100 100 100 100 100 100
100 100 95 100 100 97 100 100 100 100 100 100 100 100 100 100 100 100 100 100 100 100 100 100 100 100 100 100 100 100 100 100 100 100 100 100 100 100 100 100 100 100 100 100
100 100 100 100 100 100 100 100 100 100 100 100 100 100 100 100 100 100 100 100 100 100 100 100 100 100 100 100 100 100 100 100 100 100 100 100 100 100 100 100 100 100 100 100
100 100 100 100 100 100 100 100 100 100 100 100 100 100 100 100 100 100 100 100 100 100 100 100 100 100 100 100 100 100 100 100 100 100 100 100 100 100 100 100 100 100 100 100
100 100 100 100 100 100 100 100 100 100 100 100 100 100 100 100 100 94 97 100 100 100 100 100 100 100 100 100 100 100 100 100 100 100 100 100 100 100 100 100 100 100 100 100
100 100 100 100 100 100 100 100 100 100 100 100 100 100 100 100 100 100 100 100 100 100 100 100 84 85 93 95 89 100 100 100 100 100 100 100 100 100 100 100 100 100 100 100
100 100 100 100 100 100 100 100 100 100 100 100 100 100 100 100 100 100 100 96 100 100 100 100 100 100 100 100 100 100 100 100 100 100 100 100 100 100 100 100 100 100 100 100
100 100 100 100 100 100 100 100 100 100 100 100 100 100 100 100 100 100 100 87 87 82 90 99 98 99 100 100 100 100 100 100 100 100 100 94 100 100 100 100 100 100 100 100
100 100 100 100 100 100 100 100 100 100 100 100 100 100 100 100 98 100 100 73 14 88 95 10 13 76 100 100 100 100 100 100 100 100 100 100 100 100 100 100 100 100 100 100
100 100 100 100 100 100 98 100 99 100 100 100 100 100 100 100 100 99 99 72 75 54 97 100 93 100 100 100 100 100 100 100 100 100 96 100 100 100 100 100 100 100 100 100
97 83 50 48 64 73 55 65 96 100 98 100 100 100 100 100 94 93 64 100 100 100 100 100 100 84 100 100 100 100 100 100 94 86 100 100 100 100 100 100 100 100 100 100

GFSNGP_prec_cloud_066.txt.gz
Cloud_Cover
100 100 100 99 100 100 100 100 100 100 100 100 100 100 100 100 100 100 52 90 92 32 5 18 66 62 52 100 98 19 5 5 5 5 3 87 5 4 5 5 5 5 11 3
100 100 100 100 100 100 100 100 100 100 100 100 100 100 100 100 100 100 100 100 100 100 100 74 87 49 54 100 98 7 98 26 25 5 5 2 7 8 31 31 13 10 8 32
100 100 100 100 100 100 100 100 100 100 100 100 100 100 97 100 100 100 100 100 100 100 91 99 82 100 100 100 100 100 94 83 78 5 17 81 26 5 25 95 69 99 100 100
100 100 100 100 100 100 100 100 100 100 100 100 100 100 100 94 100 100 100 100 100 100 100 80 66 48 87 100 100 100 100 84 86 78 5 13 20 11 70 82 98 100 100 100
100 100 100 100 100 100 100 100 100 100 100 63 99 100 96 66 100 100 100 100 100 100 100 100 90 80 54 49 100 44 92 96 95 80 58 5 5 64 94 85 64 46 92 98
100 100 100 100 100 100 100 100 100 100 29 99 100 95 19 28 100 100 100 100 67 84 100 100 100 100 100 100 100 38 97 100 94 33 96 83 92 60 45 15 97 97 100 100
100 100 100 100 100 100 100 86 77 100 100 100 100 100 83 77 84 97 100 100 100 100 90 100 100 100 100 100 100 100 100 100 95 82 84 60 33 80 90 93 100 100 100 100
100 100 100 100 100 100 98 97 100 100 100 100 100 100 100 100 100 100 100 100 100 100 100 100 100 100 100 100 100 86 100 100 100 100 100 100 94 98 100 100 100 100 100 100
100 100 100 100 100 100 100 100 100 100 100 100 100 100 100 100 100 100 100 100 100 100 100 100 100 100 100 100 100 100 100 100 100 100 100 100 100 100 100 100 100 100 100 100
100 100 100 100 100 100 100 100 100 100 100 100 100 100 100 100 100 100 100 100 78 100 100 99 100 100 100 100 100 100 100 100 100 100 100 100 100 100 100 100 100 100 100 100
80 100 100 100 100 100 100 100 100 100 100 100 100 100 99 98 100 89 95 100 100 100 100 100 100 100 100 100 100 100 100 100 100 100 100 100 100 100 100 100 100 100 100 100
100 100 100 100 100 100 100 100 100 100 100 100 100 100 100 100 100 100 100 100 100 100 100 100 100 100 100 100 100 100 100 99 100 100 100 100 100 100 100 100 100 100 100 100
100 100 100 100 100 91 83 100 100 100 100 100 100 100 100 100 100 100 100 100 100 100 100 100 100 100 100 92 99 100 95 85 100 100 100 100 100 100 100 100 100 100 100 100
100 100 100 100 100 59 70 100 100 100 82 74 82 100 99 97 99 100 100 100 100 100 88 100 100 100 100 94 79 88 97 88 91 100 100 100 100 100 100 100 100 100 100 100
100 100 100 97 67 44 19 100 100 93 99 96 100 100 100 100 100 100 100 100 100 100 96 98 99 100 100 95 82 100 100 99 94 100 100 100 100 100 100 100 100 100 100 100
100 70 64 68 85 74 69 71 79 95 97 100 100 100 100 100 100 100 100 100 100 100 100 100 100 100 100 100 98 82 100 100 100 98 97 100 100 100 100 100 100 100 100 100
100 100 90 87 92 100 100 100 100 100 100 100 100 100 100 100 100 100 100 94 89 84 55 62 64 100 100 100 100 100 100 96 100 100 100 99 100 100 100 100 100 100 100 100
100 100 100 100 100 100 100 100 99 100 100 100 92 50 74 90 99 99 100 94 81 79 90 97 100 100 100 100 100 100 100 97 92 94 100 100 100 100 99 100 100 100 100 100
100 100 100 100 100 100 100 100 100 100 100 88 75 92 95 89 88 92 77 99 98 87 100 100 100 100 96 100 97 99 99 100 99 91 86 97 86 100 99 100 100 100 89 100
100 100 100 100 97 98 99 100 99 100 100 95 81 99 94 100 99 93 100 100 100 100 100 100 100 100 100 100 100 100 100 67 98 82 58 55 88 91 94 54 94 100 100 100
100 99 100 91 94 85 77 83 96 96 91 84 83 65 39 70 100 99 95 100 100 100 100 100 100 100 100 92 88 80 64 94 99 76 71 98 95 90 52 88 100 97 100 100
100 97 99 100 100 95 93 94 99 100 100 100 100 95 80 66 74 74 80 99 100 100 100 100 100 87 93 100 99 100 98 100 99 97 99 97 100 100 100 86 100 100 100 88
100 100 98 100 96 98 88 95 94 90 100 96 78 66 100 100 100 100 100 100 100 99 91 99 99 97 100 100 100 100 100 100 100 100 65 100 100 100 100 71 92 100 100 32
99 98 98 91 100 100 100 100 100 100 100 100 100 100 100 100 91 99 84 47 64 100 59 62 48 54 100 100 93 100 100 68 9 95 100 100 100 100 100 100 92 100 52 87
100 100 100 100 100 100 100 100 100 100 100 100 100 99 88 59 67 34 86 98 21 68 100 43 7 100 100 88 100 86 95 99 77 99 66 100 100 100 100 100 100 100 100 100
100 100 100 100 100 99 95 90 100 99 100 89 91 99 100 100 84 100 98 53 95 99 100 100 48 20 99 77 91 100 100 100 100 68 27 98 100 100 100 98 100 100 100 100
100 100 100 100 98 69 54 83 99 97 74 92 100 100 100 98 69 100 87 100 100 100 100 100 100 78 77 9 82 100 100 100 100 87 86 100 100 100 100 100 100 100 100 100

GFSNGP_prec_cloud_072.txt.gz
Cloud_Cover
5 100 100 100 100 100 100 100 100 100 100 100 100 100 100 95 88 100 100 100 100 100 100 100 100 100 100 100 100 100 100 61 78 42 5 24 31 9 2 6 68 100 100 100
5 100 100 100 100 100 100 100 100 100 100 100 100 100 100 100 100 100 98 98 100 100 100 100 100 100 100 100 100 100 100 100 100 90 44 5 52 100 99 73 38 5 18 100
87 100 100 100 100 100 100 100 100 100 100 100 100 100 100 100 100 100 100 98 100 100 100 100 100 100 100 100 100 86 97 99 100 100 100 100 99 100 100 98 100 100 46 26
87 100 100 100 100 100 86 100 100 100 100 100 100 100 100 100 100 100 100 100 100 100 100 100 100 100 92 77 78 65 100 94 93 97 81 96 100 100 100 100 85 100 100 100
23 100 100 100 100 100 100 100 100 100 100 100 100 100 100 100 100 100 100 100 100 100 94 81 92 100 100 100 100 93 69 88 100 100 100 100 100 100 100 100 100 100 100 100
86 100 100 100 100 100 100 100 100 100 100 100 100 100 100 100 100 100 100 100 100 100 81 100 99 89 36 96 99 94 100 89 100 100 100 100 100 100 100 100 100 100 100 100
14 100 100 100 100 100 100 100 100 100 100 100 100 100 100 100 100 100 100 100 100 100 99 100 100 100 100 66 98 100 100 100 99 100 100 100 100 100 100 100 100 100 100 100
24 100 100 100 100 100 100 100 100 100 100 100 100 100 100 100 100 100 100 100 100 100 100 100 99 91 98 84 76 64 91 100 100 86 100 100 100 100 100 100 100 100 100 100
21 51 100 100 100 100 100 100 100 100 100 100 100 100 100 100 100 100 100 100 100 100 99 100 100 100 100 83 95 80 92 100 92 100 100 98 93 100 100 100 100 100 100 100
100 50 93 100 100 100 100 100 100 100 100 100 100 100 75 100 100 100 100 100 100 100 98 100 100 100 100 100 98 98 100 100 100 100 99 98 98 100 100 100 100 100 100 100
100 98 53 100 100 100 100 100 100 100 93 100 100 100 100 100 100 100 100 100 100 100 100 100 100 100 100 100 100 100 100 100 98 100 100 100 100 100 100 100 100 100 99 99
100 100 100 100 100 100 100 100 100 100 100 100 100 100 100 100 100 100 100 100 100 100 100 100 100 100 100 100 100 100 100 100 100 100 100 100 100 100 100 100 100 100 100 100
100 100 100 100 97 100 100 100 100 100 100 100 100 100 100 100 100 100 100 100 100 100 100 99 97 100 92 100 98 93 100 100 99 100 100 100 97 97 100 100 100 100 100 100
100 100 100 100 100 100 100 93 100 100 100 100 100 100 100 97 100 100 100 100 100 100 100 100 100 100 100 100 89 88 100 96 100 96 99 92 91 97 97 100 100 100 100 100
100 100 100 100 100 100 100 100 85 100 100 100 100 100 100 100 100 100 100 100 100 100 100 100 100 100 64 23 6 59 100 99 84 63 36 59 76 79 85 97 100 100 93 100
100 100 100 100 100 100 100 100 100 100 100 100 100 100 100 100 100 100 100 100 100 100 100 100 84 85 88 83 67 70 41 18 72 89 72 33 5 46 68 96 100 100 100 100
100 100 100 100 100 100 100 100 100 100 100 100 100 100 100 100 100 69 37 48 64 98 98 66 43 36 5 5 6 10 6 5 5 5 80 100 100 100 93 87 92 100 100 100
100 100 86 94 100 100 100 100 100 100 100 100 99 75 86 71 92 62 66 70 59 5 5 5 5 5 5 5 5 5 5 48 19 5 8 70 100 96 93 86 84 91 97 80
89 100 100 100 96 96 100 100 96 95 100 99 97 95 94 91 85 79 42 15 5 5 38 5 5 5 5 5 5 5 5 24 5 21 30 41 60 85 93 98 98 96 96 98
100 100 100 100 100 100 100 100 100 100 98 91 88 94 97 94 70 70 69 94 85 67 49 17 17 26 27 28 5 5 5 8 85 70 8 54 69 96 85 80 83 88 84 85
100 91 86 89 96 79 84 89 88 83 90 81 64 56 68 82 21 20 14 76 45 50 71 83 94 96 53 40 11 59 14 43 55 46 63 54 28 66 100 98 50 91 100 97
80 89 89 84 88 94 90 96 100 95 96 87 88 97 88 89 82 79 91 76 42 32 39 66 56 57 30 32 7 10 26 57 63 36 32 61 81 70 100 100 98 71 100 100
99 97 94 97 91 92 97 99 98 99 100 94 100 100 100 99 100 100 100 97 98 100 100 100 100 100 93 78 51 45 15 28 10 62 98 100 100 100 100 100 98 37 100 100
66 74 73 86 100 100 100 98 91 80 87 84 100 100 100 100 100 100 100 100 99 95 74 47 89 22 11 58 34 92 53 92 94 54 79 97 97 100 100 84 62 100 100 96
77 89 100 100 94 100 99 100 100 100 100 100 100 100 100 100 96 79 66 47 54 28 12 13 15 16 5 9 82 40 97 49 5 5 5 76 100 93 92 73 100 100 100 93
100 100 100 100 100 100 100 100 100 100 100 100 96 80 78 56 37 17 7 9 83 63 60 59 72 9 40 16 18 55 59 83 57 47 10 55 100 98 100 98 97 70 70 100
100 92 89 93 92 69 74 94 100 100 100 99 87 58 7 5 14 29 76 75 98 62 93 90 79 80 99 75 61 82 71 98 99 99 100 98 100 100 100 100 100 74 81 99

GFSNGP_prec_cloud_075.txt.gz
Cloud_Cover
5 9 7 7 94 100 100 100 100 100 100 100 100 100 100 100 100 100 100 100 100 100 100 100 100 100 100 100 100 84 80 90 100 94 53 68 78 67 92 76 50 50 96 100
5 4 10 11 12 100 100 100 100 100 100 100 100 100 100 100 100 100 100 100 100 100 100 100 100 100 100 100 100 100 100 100 100 100 100 100 100 100 97 93 100 97 98 99
60 4 4 4 5 92 100 100 100 100 100 100 100 100 100 100 100 100 100 100 100 100 100 100 100 100 100 100 100 100 100 100 100 100 100 100 100 100 100 100 100 100 100 100
38 7 8 5 100 96 100 100 100 100 100 100 100 100 100 100 100 100 100 100 100 100 100 100 100 100 100 100 100 100 100 100 100 100 100 100 100 100 100 100 100 100 100 100
11 6 4 8 98 100 100 100 100 100 100 100 100 100 100 100 100 100 100 100 100 100 100 100 100 100 100 100 100 100 100 100 100 100 100 100 100 100 100 100 100 100 100 100
88 5 5 10 100 100 100 100 100 100 100 100 100 100 100 100 100 100 100 100 100 100 100 100 100 100 100 100 100 100 100 100 100 100 100 100 100 100 100 100 100 100 100 100
100 28 5 53 100 100 100 100 100 100 100 100 100 100 100 100 100 100 100 100 100 100 100 100 100 100 100 100 99 100 100 100 100 100 100 100 100 100 100 100 100 100 100 100
100 96 55 16 100 100 100 100 100 100 100 100 100 100 100 100 100 100 100 100 100 100 100 100 100 100 100 100 99 100 100 100 100 95 100 100 100 100 100 100 100 100 100 100
100 77 65 69 100 100 100 100 100 100 100 100 100 100 100 100 100 100 100 100 100 99 100 100 100 100 100 96 35 64 82 100 100 100 100 99 100 90 64 84 90 94 100 100
96 88 58 32 73 100 100 100 100 100 100 100 100 100 100 100 100 100 100 100 99 100 100 100 100 100 100 99 36 28 82 92 100 100 100 100 100 100 100 100 100 100 100 100
91 100 100 100 100 100 100 100 100 100 100 100 100 100 100 100 100 100 100 100 100 100 100 100 100 100 100 100 100 100 100 100 100 100 99 100 100 100 100 100 100 100 100 100
91 100 100 100 100 100 100 100 100 100 100 100 100 100 100 100 100 100 100 100 100 100 100 100 100 99 100 100 90 100 100 100 98 100 100 99 98 100 100 100 100 100 100 98
100 100 100 100 100 100 100 100 100 100 100 100 100 100 100 100 100 100 100 100 100 100 100 100 100 100 100 94 91 100 99 96 83 82 100 100 96 100 100 100 100 100 100 100
100 100 100 100 100 100 100 100 100 100 100 100 100 100 100 100 100 100 100 100 100 97 100 100 99 100 100 100 100 100 100 97 100 99 95 89 96 100 100 100 99 100 96 100
100 100 100 100 100 100 100 100 100 100 100 100 100 100 100 100 100 100 100 100 95 50 93 96 96 100 100 94 71 79 99 100 91 91 87 87 100 100 91 92 98 87 6 16
100 100 100 100 100 100 100 100 99 100 92 100 100 100 100 100 100 100 95 74 91 99 99 100 100 100 100 100 100 100 100 73 50 90 89 61 17 29 63 96 100 100 100 100
100 100 100 100 100 100 100 99 100 100 100 100 100 100 100 100 100 100 100 100 97 81 90 70 82 29 23 63 99 100 100 100 94 99 100 99 100 100 83 76 100 100 100 79
100 100 100 100 100 100 100 100 99 82 95 100 83 91 96 97 90 84 88 93 94 95 94 93 92 90 87 79 34 20 26 73 71 85 70 95 100 78 76 84 93 98 85 34
91 95 94 100 100 100 99 100 100 100 76 93 95 93 98 83 76 66 6 5 7 44 96 52 9 5 5 5 5 5 5 27 7 58 45 50 62 72 73 83 99 100 94 93
87 82 93 99 68 71 100 98 74 81 72 76 91 85 65 68 17 5 5 96 95 100 97 22 5 5 5 5 29 5 5 38 21 45 80 90 85 100 87 77 89 98 100 98
82 66 73 66 98 76 76 61 74 95 94 87 82 74 62 60 58 58 55 34 8 86 66 5 5 5 5 36 5 54 8 7 10 18 58 88 100 92 99 100 100 100 100 100
100 100 99 100 80 86 92 100 100 100 100 97 87 79 71 63 61 65 69 61 49 53 33 20 5 55 20 5 5 37 45 44 67 57 91 73 99 100 100 98 100 100 100 100
97 93 86 86 86 81 86 81 68 78 84 83 78 72 80 86 83 75 85 35 53 51 51 68 83 84 94 99 82 54 37 34 85 100 100 100 100 100 100 83 74 97 100 100
94 96 95 80 85 95 86 88 96 99 96 97 96 86 82 99 100 100 100 100 100 100 98 88 44 91 60 53 94 91 97 93 38 87 100 100 100 100 100 98 93 100 100 100
98 96 100 100 100 100 100 100 100 100 100 100 100 100 100 100 100 95 89 71 50 27 5 40 56 20 5 94 90 94 100 68 14 19 25 99 100 100 100 94 99 100 100 100
100 100 100 100 100 100 100 100 100 100 100 100 100 100 100 96 90 88 88 61 38 54 61 81 34 56 8 5 24 87 66 100 92 64 72 67 100 100 100 100 100 100 98 99
98 92 83 90 100 100 100 100 100 100 100 100 100 100 99 84 66 54 87 81 86 98 85 88 100 88 88 82 97 99 99 89 93 78 79 96 100 100 100 100 100 100 85 97

GFSNGP_prec_cloud_081.txt.gz
Cloud_Cover
100 100 100 100 100 100 98 27 55 86 42 100 100 100 100 100 100 100 100 100 100 100 100 100 100 100 100 100 100 100 100 100 100 100 100 100 100 96 89 98 100 98 100 87
98 100 100 100 100 100 100 100 98 18 99 100 100 100 100 100 100 100 100 100 100 100 100 100 100 100 100 100 100 100 100 100 100 100 100 100 100 100 100 100 100 100 100 100
100 100 100 50 5 64 100 100 86 76 100 100 100 100 100 100 100 100 100 100 100 100 100 100 100 100 100 100 100 100 100 100 100 100 100 100 100 100 100 100 100 100 100 100
100 100 100 100 47 31 96 100 77 35 100 100 100 100 100 100 100 100 100 100 100 100 100 100 100 100 100 100 100 100 100 100 100 100 100 100 100 100 100 100 100 100 100 100
100 100 99 100 100 95 97 35 61 96 100 100 100 100 100 100 100 100 100 100 100 100 100 100 100 100 100 100 100 93 100 100 100 100 100 100 100 100 100 100 100 100 100 100
100 100 100 100 91 88 100 65 98 98 100 100 100 100 100 100 100 100 100 100 100 100 100 100 100 100 100 100 100 100 100 100 100 100 100 100 100 100 100 100 100 100 100 100
98 100 84 100 57 91 94 75 97 90 81 100 100 100 100 100 100 100 100 100 100 100 100 100 100 100 100 100 100 100 100 100 100 100 100 100 100 100 100 100 100 100 100 100
81 69 100 100 38 39 99 100 100 100 100 100 100 100 100 100 100 100 100 100 100 100 100 100 100 100 100 100 100 100 100 100 100 100 100 100 100 100 100 100 100 100 100 100
19 9 100 100 100 100 100 100 100 100 100 100 100 100 100 100 100 100 100 100 100 100 100 100 100 100 100 100 100 100 100 100 100 100 100 100 100 100 100 100 100 100 100 100
67 83 100 100 100 94 100 100 100 100 100 100 100 100 100 100 100 100 100 100 100 100 100 100 100 100 100 100 100 100 100 100 100 100 100 100 100 100 100 100 100 100 100 100
67 97 100 100 100 100 100 100 100 100 100 100 100 100 100 100 100 100 100 100 100 100 100 100 100 100 100 100 100 100 100 100 100 100 100 100 100 100 100 100 100 100 100 100
100 100 100 100 100 95 100 100 100 100 100 100 100 100 100 100 100 100 100 100 100 100 100 100 100 100 100 100 100 100 100 100 100 100 100 100 100 100 100 100 100 100 100 100
100 100 100 100 100 100 100 100 100 100 100 100 100 100 100 100 100 100 100 100 100 100 100 100 100 100 100 100 100 100 100 100 100 100 100 100 100 100 100 98 100 100 100 100
100 100 100 100 100 100 100 100 100 100 100 100 100 100 100 100 100 100 100 100 100 100 100 100 100 100 100 100 100 100 100 100 100 100 100 97 95 73 41 26 37 81 97 100
100 100 100 100 100 100 100 100 100 100 100 100 100 100 100 100 100 100 100 100 91 79 91 80 86 99 99 74 56 90 81 76 83 92 95 72 60 33 17 23 27 38 5 12
100 100 100 100 100 100 100 100 98 100 100 100 100 100 100 100 100 100 100 100 100 100 100 100 100 100 76 59 74 73 67 62 24 60 55 51 93 69 30 18 5 5 5 5
100 100 100 100 100 98 100 100 100 100 100 100 100 100 100 100 100 100 100 100 100 100 100 100 100 80 64 22 62 96 100 87 34 76 52 5 5 5 5 5 5 28 62 35
100 100 100 100 100 100 100 100 100 100 100 99 100 95 95 100 100 100 100 100 100 100 100 100 100 82 54 34 14 60 76 82 74 71 60 68 51 18 30 41 62 73 95 26
100 100 100 100 100 100 100 100 100 98 99 96 79 97 90 94 99 100 100 100 100 100 100 100 100 100 100 100 100 72 52 62 50 72 70 39 86 85 98 100 100 100 100 96
100 100 100 100 100 100 100 100 99 99 100 85 92 85 86 89 84 84 76 99 100 100 100 100 100 100 95 66 27 22 53 70 19 78 88 84 100 100 99 70 98 100 100 100
100 98 98 91 100 88 80 82 96 100 88 66 55 27 5 51 9 62 67 35 100 99 79 5 5 7 5 5 5 44 6 48 67 66 83 85 97 92 98 100 100 100 100 100
89 92 90 79 77 98 88 62 34 11 5 5 5 5 9 5 5 5 5 10 100 21 37 71 88 80 70 49 33 85 79 80 85 87 83 85 96 98 99 92 90 74 70 95
81 71 20 52 36 17 71 46 50 9 5 5 5 5 29 48 5 5 5 8 86 73 85 99 100 100 84 21 31 50 16 12 9 26 93 100 100 100 100 100 98 79 91 94
98 97 97 100 100 100 96 81 29 13 11 12 29 63 62 74 94 96 96 98 99 96 94 100 99 93 97 98 80 66 52 12 14 5 5 84 99 100 100 100 100 100 93 80
100 100 98 89 69 83 63 30 5 7 6 5 6 8 6 12 22 34 46 58 64 48 37 31 20 7 5 60 38 22 66 85 97 99 97 84 51 77 96 100 95 100 100 100
26 19 87 91 36 5 5 5 5 8 28 67 59 53 28 32 41 41 36 42 14 40 69 92 94 100 99 87 47 47 89 98 98 100 99 100 100 100 100 100 100 100 100 100
62 53 15 14 6 56 71 93 99 99 98 100 100 100 86 5 8 21 42 19 26 77 86 98 100 74 99 100 100 100 100 94 50 78 100 100 100 100 100 100 100 100 100 100

GFSNGP_prec_cloud_087.txt.gz
Cloud_Cover
71 100 100 100 100 100 100 100 100 100 100 100 100 69 14 11 20 51 46 93 100 100 100 100 100 100 100 100 100 100 100 100 100 100 100 100 100 100 100 100 100 100 100 100
100 100 100 100 100 100 100 100 100 64 96 9 84 54 98 90 80 97 86 100 100 100 100 100 100 100 100 100 100 100 100 100 100 100 100 100 100 100 100 100 100 100 100 100
100 99 100 100 100 100 100 100 100 100 97 99 100 100 100 100 100 100 100 100 100 100 100 100 100 100 100 100 100 100 100 100 100 100 100 100 100 100 100 100 100 100 100 100
98 83 100 100 100 100 100 100 100 100 100 100 100 100 100 100 100 100 100 100 100 100 100 100 100 100 100 100 100 100 100 100 100 100 100 100 100 100 100 100 100 100 100 100
100 100 96 100 100 100 100 100 100 100 45 100 100 100 100 100 100 100 100 100 100 100 100 100 100 100 100 100 100 100 100 100 100 100 100 100 100 100 100 100 100 100 100 100
100 100 100 100 100 100 100 100 100 100 100 85 99 100 100 100 100 100 100 100 100 100 100 100 100 100 100 100 100 100 100 100 100 100 100 100 100 100 100 100 100 100 100 100
100 100 100 100 100 100 100 100 100 100 100 100 100 100 100 100 100 100 100 100 100 100 100 100 100 100 100 100 100 100 100 100 100 100 100 100 100 100 100 100 100 100 100 100
54 99 100 100 100 100 100 100 100 100 100 100 100 100 100 100 100 100 100 100 100 100 100 100 100 100 100 100 100 100 100 100 100 100 100 100 100 100 100 100 100 100 100 100
63 100 100 100 100 97 98 100 100 100 100 100 100 100 99 100 100 100 100 100 100 100 100 100 100 100 100 100 100 100 100 100 100 100 100 100 100 100 100 100 100 100 100 100
100 100 100 100 100 100 100 100 100 100 100 100 99 100 100 100 100 100 100 100 100 100 100 100 100 100 100 100 100 100 100 100 100 100 100 100 100 100 100 100 100 100 100 100
98 100 100 99 100 100 100 96 100 100 100 100 100 100 100 100 100 100 100 100 100 100 100 100 100 100 100 100 100 100 100 100 100 100 100 100 100 100 100 100 100 100 100 100
100 100 100 100 100 100 100 100 100 96 100 100 100 100 100 100 100 100 100 100 100 100 100 100 100 100 100 100 100 100 100 100 100 100 100 100 100 100 100 100 100 100 100 100
100 100 100 100 86 87 97 100 100 92 100 100 100 100 100 100 100 100 100 100 100 100 100 100 100 100 100 100 100 100 100 100 100 100 100 100 100 100 100 100 100 100 100 100
96 100 88 100 100 97 100 100 100 100 100 100 100 100 100 100 100 100 100 100 100 100 100 100 100 100 100 100 100 100 100 100 100 100 100 100 100 100 100 100 100 100 100 100
100 100 100 100 100 100 100 100 100 100 100 100 100 100 100 100 100 100 100 100 100 100 100 100 100 100 100 100 100 100 100 100 100 100 100 100 99 100 100 100 100 100 100 99
100 100 100 100 100 100 100 100 100 100 100 100 100 100 100 100 100 100 100 100 100 100 100 100 100 100 100 100 100 93 100 100 100 100 99 99 98 73 74 72 83 83 85 93
100 100 100 100 100 100 100 100 100 100 100 100 100 99 100 100 99 100 100 100 100 100 100 100 100 100 100 100 100 100 100 100 98 97 88 89 90 77 86 99 88 84 76 42
100 100 100 100 100 100 100 100 100 100 100 100 100 99 96 76 86 82 90 88 97 100 100 100 100 100 100 100 100 100 100 99 80 91 100 98 86 100 100 100 100 100 100 53
100 100 100 100 100 100 100 100 100 100 100 100 100 100 92 92 89 80 41 70 79 97 99 94 77 53 37 55 74 96 100 100 80 92 85 90 97 100 100 100 100 100 100 100
100 100 100 100 100 100 100 100 100 100 95 16 6 5 5 5 5 6 13 50 94 100 100 55 55 5 5 5 10 74 100 100 89 100 84 100 100 100 99 58 92 100 100 100
100 100 100 100 100 100 100 100 98 53 5 5 5 5 5 5 5 35 39 73 92 77 10 26 5 5 5 4 15 100 100 100 100 100 100 100 100 100 100 100 100 100 100 100
100 100 100 100 100 100 99 56 5 17 23 15 25 23 6 23 10 10 3 40 100 3 42 94 91 6 1 31 94 100 100 100 100 100 100 100 100 100 100 100 100 100 100 100
100 100 100 100 100 100 100 72 57 46 24 7 30 81 71 29 6 40 92 55 56 50 85 100 11 5 13 100 100 100 100 100 100 100 100 100 100 100 100 100 100 100 100 100
100 100 98 81 81 88 73 41 5 5 19 8 6 11 56 100 100 47 72 9 3 40 86 81 57 5 5 100 100 100 100 100 100 100 100 100 100 100 100 100 100 100 100 100
97 65 53 17 15 44 35 16 49 84 74 100 98 75 77 96 96 100 100 100 14 55 100 69 6 5 96 100 100 100 100 100 100 99 100 100 100 100 100 100 100 100 100 100
76 97 100 98 98 97 100 80 98 100 100 100 100 100 100 100 100 98 100 67 100 88 97 100 100 100 100 100 100 100 100 100 100 100 100 100 100 100 100 100 100 100 100 100
100 96 100 98 94 87 87 73 100 100 95 100 100 100 100 100 100 80 100 100 100 100 100 100 100 100 100 100 100 100 100 100 100 100 100 100 100 100 100 100 100 100 100 100

GFSNGP_prec_cloud_090.txt.gz
Cloud_Cover
87 87 89 100 100 100 100 100 100 100 100 100 100 100 100 100 100 100 100 85 97 98 100 100 100 100 100 100 100 100 100 100 100 100 100 100 100 100 100 100 100 100 100 100
71 65 100 89 100 100 100 100 100 100 100 100 100 100 100 100 100 100 100 100 100 100 100 100 100 100 100 100 100 100 100 100 100 100 100 100 100 100 100 100 100 100 100 100
19 69 100 100 100 100 100 100 100 100 100 96 100 100 100 100 100 100 100 100 100 100 100 100 100 100 100 100 100 100 100 100 100 100 100 100 100 100 100 100 100 100 100 100
83 100 100 100 100 100 100 100 100 99 99 100 50 100 100 100 100 100 100 100 100 100 100 100 100 100 100 100 100 100 100 100 100 100 100 100 100 100 100 100 100 100 100 100
100 100 87 93 99 100 100 100 100 100 100 100 100 100 100 100 100 100 100 100 100 100 100 100 100 100 100 100 100 100 100 100 100 100 100 100 100 100 100 100 100 100 100 100
100 100 100 100 100 15 100 98 100 100 100 100 100 100 100 100 100 100 100 100 99 100 100 100 100 100 100 100 100 100 100 100 100 100 100 100 100 100 100 100 100 100 100 100
96 100 100 85 54 49 75 100 100 100 100 100 100 100 100 100 100 100 100 100 100 100 100 100 100 100 100 100 100 100 100 100 100 100 100 100 100 100 100 100 100 100 100 100
100 100 100 100 100 100 100 100 100 100 100 100 100 100 100 100 100 100 100 100 100 100 100 100 100 100 100 100 100 100 100 100 100 100 100 100 100 100 100 100 100 100 100 100
100 100 100 100 99 100 100 100 100 100 100 100 100 100 100 100 100 99 100 100 100 100 100 100 100 100 100 100 100 100 100 100 100 100 100 100 100 100 100 100 100 100 100 100
100 100 100 100 100 100 100 100 100 100 100 100 100 100 100 100 100 100 100 100 100 100 100 100 100 100 100 100 100 100 100 100 100 100 100 100 100 100 100 100 100 100 100 100
100 100 100 100 100 100 100 100 100 99 100 100 100 100 100 100 100 100 100 100 100 100 100 100 100 100 100 100 100 100 100 100 100 100 100 100 100 100 100 100 100 100 100 100
100 100 100 100 100 100 100 100 100 85 100 100 100 100 100 100 100 100 100 100 100 100 100 100 100 100 100 100 100 100 100 100 100 100 100 100 100 100 100 100 100 100 100 100
100 100 99 100 100 100 100 100 100 100 100 100 100 100 100 100 100 100 100 100 100 100 100 100 100 100 100 100 100 100 100 100 100 100 100 100 100 100 100 100 100 100 100 100
100 100 100 100 100 100 100 100 100 99 77 100 100 100 100 100 100 100 100 100 100 100 100 100 100 100 100 100 100 100 100 100 100 100 100 100 100 100 100 100 100 100 100 100
100 98 100 100 100 100 100 100 100 97 100 100 100 100 100 100 100 100 100 100 100 100 100 100 100 100 100 100 100 100 100 100 100 100 100 100 100 100 100 100 100 100 100 100
100 100 100 100 100 84 99 100 100 100 100 100 100 95 84 100 100 100 100 100 96 100 100 100 100 98 100 100 100 100 100 100 100 100 100 100 100 100 100 98 83 100 100 100
100 100 100 100 100 100 100 100 100 100 100 100 100 100 100 97 81 69 84 94 100 100 96 92 100 99 100 100 100 100 100 100 100 100 100 100 100 100 100 100 100 100 100 99
100 100 100 100 100 100 100 100 100 100 100 99 85 74 75 70 56 33 5 5 9 5 5 5 5 76 100 43 23 46 81 97 100 100 100 98 98 100 100 93 100 100 98 93
100 100 100 100 100 100 100 100 100 100 95 86 58 76 93 94 45 10 59 100 100 88 62 8 9 5 6 31 49 84 95 98 98 84 62 81 86 90 89 100 87 62 95 54
100 100 100 100 100 100 97 100 100 66 11 18 6 5 5 5 5 15 6 5 34 66 5 3 10 5 0 0 5 44 14 71 84 13 23 81 83 97 44 7 16 86 100 100
100 100 100 100 100 100 100 100 92 98 99 93 94 59 6 5 5 5 93 100 55 1 8 38 4 0 0 1 31 80 99 93 100 97 83 96 99 100 100 100 100 100 100 100
100 100 100 100 100 99 20 16 47 98 100 94 43 52 47 32 5 15 5 22 88 3 76 94 4 3 2 51 97 95 97 69 100 100 100 99 99 100 100 100 100 100 100 100
100 100 100 98 77 96 100 100 100 95 76 34 38 31 5 6 5 8 100 38 96 3 99 44 4 5 16 82 100 100 100 95 100 100 97 99 92 100 100 100 92 56 46 100
100 100 100 100 100 100 81 48 37 28 5 5 5 5 14 54 90 98 60 17 2 3 11 14 5 0 5 72 97 100 94 100 99 99 98 94 93 100 100 100 100 100 100 100
100 100 98 70 58 47 9 5 6 6 8 57 8 7 5 32 14 67 32 78 37 6 76 94 46 5 5 68 100 100 99 100 100 97 8 11 98 100 100 100 100 100 100 64
92 93 90 68 64 62 83 16 51 99 87 85 99 97 93 61 24 11 97 94 58 32 5 98 82 100 48 43 94 100 100 100 100 100 100 100 100 100 100 100 100 100 100 100
90 78 56 36 36 39 63 31 13 96 100 95 28 94 100 100 91 56 12 28 63 94 100 99 100 100 93 99 87 62 100 100 100 100 100 100 97 83 100 100 100 100 100 100

GFSNGP_prec_cloud_096.txt.gz
Cloud_Cover
5 5 5 26 60 100 36 38 100 100 100 100 100 100 100 100 100 100 100 100 100 100 100 100 100 100 100 100 100 100 100 100 100 100 100 100 100 100 100 100 100 100 100 100
4 0 0 80 5 91 100 85 93 100 100 100 100 100 100 100 100 100 100 100 100 100 100 100 100 100 100 100 100 100 100 100 100 100 100 100 100 100 100 100 100 100 100 100
4 1 5 12 2 77 95 100 100 100 100 100 100 100 100 100 100 100 100 100 100 100 100 100 100 100 100 100 100 100 100 100 100 100 100 100 100 100 100 100 100 100 100 100
9 45 91 100 97 100 100 100 100 100 100 100 100 100 100 100 100 100 100 100 100 100 100 100 100 100 100 100 100 100 100 100 100 100 100 100 100 100 100 100 100 100 100 100
48 100 100 100 100 100 100 100 100 100 100 100 100 100 92 100 100 100 100 100 100 100 100 100 100 100 100 100 100 100 100 100 100 100 100 100 100 100 100 100 100 100 100 100
100 100 100 100 100 100 100 100 100 100 100 100 100 100 100 97 100 100 100 100 100 100 100 100 100 100 100 100 100 100 100 100 100 100 100 100 100 100 100 100 100 100 100 100
100 100 100 100 100 100 100 100 100 100 100 100 100 92 94 100 100 100 100 100 100 100 100 100 100 100 100 100 100 100 100 100 100 100 100 100 100 100 100 100 100 100 100 100
100 100 100 100 100 100 100 100 100 100 100 100 100 96 100 100 100 100 100 100 100 100 100 100 100 99 99 100 100 100 100 100 100 100 100 100 100 100 100 100 100 100 100 100
100 100 100 100 100 100 100 100 100 100 100 94 87 95 99 100 100 100 100 100 100 100 100 100 100 100 100 100 100 100 100 100 100 100 100 100 100 100 100 100 100 100 100 100
100 100 100 100 100 100 100 100 86 98 100 100 100 100 97 99 100 95 98 95 100 100 100 100 100 100 100 100 100 100 100 100 100 100 100 100 100 100 100 100 100 100 100 100
100 100 100 100 100 100 96 88 98 96 98 100 99 100 100 100 100 100 99 100 100 100 100 100 100 100 100 100 100 100 100 100 100 100 100 100 100 100 100 100 100 100 100 100
100 100 100 100 100 100 100 100 100 98 94 100 100 87 97 100 100 100 100 100 100 100 100 100 100 100 100 100 98 100 100 100 100 100 100 100 100 100 100 100 100 100 100 100
92 96 100 99 100 100 100 100 100 100 100 98 100 99 100 100 97 99 94 100 100 100 100 100 100 100 100 100 100 100 100 100 100 100 100 100 100 100 100 100 100 100 100 100
96 96 96 97 98 100 100 100 99 100 100 100 92 93 70 77 76 77 84 78 100 100 100 100 100 100 100 100 100 100 100 100 100 100 100 100 100 100 100 100 100 100 100 100
100 92 98 94 96 100 99 100 99 99 100 100 100 72 50 24 85 41 30 34 52 79 100 100 100 100 100 100 100 100 100 100 100 100 100 100 100 100 100 100 100 100 100 100
100 94 93 76 94 94 80 68 81 100 99 100 94 69 29 5 12 16 51 95 95 95 88 100 100 100 100 100 100 100 100 91 60 100 100 100 99 99 100 100 100 100 100 100
100 100 99 83 75 68 70 71 68 97 100 68 46 95 96 95 57 54 98 100 100 100 100 100 100 100 100 83 99 98 100 92 98 48 82 100 100 100 100 100 100 100 100 100
100 100 100 98 99 93 100 100 100 100 100 100 100 100 87 65 100 100 100 100 100 98 86 78 78 38 22 74 60 7 5 5 5 30 40 31 50 56 88 97 96 99 100 100
100 100 100 99 96 100 100 100 100 100 100 100 100 99 100 100 100 92 83 90 39 5 5 5 5 5 5 5 5 5 5 26 5 52 32 41 64 70 77 82 63 57 65 54
100 100 100 100 100 100 100 100 100 100 100 100 100 100 92 85 71 40 22 27 18 5 5 2 1 3 5 5 52 5 5 26 6 62 84 93 68 75 43 45 69 81 85 48
100 100 100 100 100 100 100 94 58 85 66 19 32 12 5 5 5 32 71 63 5 5 5 4 4 5 5 25 32 50 8 47 93 87 76 98 80 87 78 91 78 98 100 100
68 92 96 51 40 87 59 24 34 52 24 5 34 5 5 5 10 6 36 23 5 5 5 5 5 4 5 84 10 5 22 5 34 71 99 99 100 100 100 100 100 100 94 88
71 42 21 13 9 30 74 12 66 54 47 54 65 58 48 23 32 35 7 5 5 18 5 5 5 5 5 11 95 9 41 66 5 36 31 6 19 74 68 96 95 100 99 100
79 19 5 29 56 34 44 74 69 41 33 51 72 76 56 82 63 10 12 5 5 83 44 19 6 5 5 5 62 83 48 24 77 92 80 95 99 100 99 89 49 47 86 80
7 42 95 100 95 70 43 21 15 18 31 35 28 59 91 60 60 34 5 5 30 5 5 55 41 5 5 6 50 98 55 36 87 42 7 10 10 52 56 64 92 88 97 100
100 99 91 92 76 89 97 94 42 61 63 62 94 100 100 100 100 100 69 37 34 44 69 46 67 33 41 34 64 72 83 76 65 41 59 86 96 62 83 100 99 74 79 84
91 69 98 100 88 27 50 72 40 94 100 100 99 95 78 100 100 100 100 100 100 100 100 100 100 100 100 100 96 99 87 41 62 41 98 90 90 80 71 90 95 98 100 100

GFSNGP_prec_cloud_099.txt.gz
Cloud_Cover
0 3 5 5 0 0 16 4 38 32 4 100 100 100 100 100 100 100 100 100 100 100 100 100 100 100 100 100 100 100 100 100 100 100 100 100 100 100 100 100 100 99 100 100
68 4 0 0 0 0 0 5 59 77 55 100 100 100 100 100 100 100 100 100 100 100 100 100 100 100 100 100 100 100 100 100 100 100 100 100 100 100 100 100 100 100 100 100
4 0 0 0 27 49 0 41 100 100 100 100 100 100 100 100 100 100 100 100 100 100 100 100 100 100 100 100 100 100 100 100 100 100 100 100 100 100 100 100 100 100 100 100
25 5 34 100 100 95 80 100 100 100 100 100 100 100 100 100 100 100 100 100 100 100 100 100 100 100 100 100 100 100 100 100 100 100 100 100 100 100 100 100 100 100 100 100
16 80 100 100 100 100 100 100 100 100 100 100 100 100 100 100 100 100 100 100 100 100 100 100 100 100 100 100 100 100 100 100 100 100 100 100 100 100 100 100 100 100 100 100
100 100 100 100 100 100 100 100 100 100 100 100 100 100 100 100 100 100 100 100 100 100 100 100 100 100 100 100 100 100 100 100 100 100 100 100 100 100 100 100 100 100 100 100
100 100 100 100 100 100 100 100 100 100 100 100 100 100 100 100 100 97 100 100 100 98 100 100 100 100 100 100 100 100 100 100 100 100 100 100 100 100 100 100 100 100 100 100
100 100 100 100 100 100 100 100 100 100 100 100 100 100 100 100 100 95 95 100 100 100 100 100 100 100 100 100 100 93 89 100 100 100 100 100 100 100 100 100 100 100 100 100
100 100 100 100 100 100 100 100 100 100 100 100 100 100 87 94 100 95 91 98 88 95 100 100 100 100 100 100 96 81 92 100 100 100 100 100 100 100 100 100 100 100 100 100
100 100 100 100 100 100 100 100 100 100 100 100 100 100 94 86 91 92 93 96 94 88 97 99 98 100 100 100 100 99 99 100 100 100 100 100 99 100 100 100 100 100 100 100
100 100 100 100 100 100 100 100 100 100 100 100 100 96 100 100 100 99 100 100 100 100 100 99 97 95 94 100 100 100 100 94 88 100 100 100 100 100 100 100 100 100 100 100
100 100 100 100 100 100 100 100 100 100 100 92 81 97 100 100 100 100 100 94 85 94 100 100 96 73 78 100 100 100 100 100 100 100 100 100 100 100 100 100 100 100 100 100
100 100 100 100 100 100 100 100 100 98 99 88 94 99 95 100 93 98 74 68 71 97 77 100 100 100 100 100 100 100 100 100 100 100 100 100 100 100 100 100 100 100 100 100
98 99 100 100 100 99 97 100 100 100 100 100 80 84 85 88 87 57 62 52 26 45 40 91 100 100 100 100 100 99 68 100 100 100 100 100 100 100 100 100 100 100 100 100
89 62 68 86 99 93 100 100 100 100 99 96 100 100 100 100 76 19 5 12 63 13 5 5 47 100 100 100 100 100 98 100 100 100 100 100 100 100 100 100 100 100 100 100
100 99 87 98 100 100 100 100 83 95 91 99 100 100 92 69 9 5 5 5 5 41 5 5 5 16 60 100 100 100 100 100 93 84 98 100 94 74 99 100 100 100 100 100
70 96 91 87 77 87 72 66 69 91 100 95 100 89 27 5 5 5 5 10 60 58 31 33 5 5 5 5 34 90 86 41 44 30 60 66 45 79 6 18 58 67 84 81
100 99 95 99 86 88 94 99 100 97 95 99 83 97 7 47 53 100 100 100 76 74 66 55 50 38 16 12 8 15 23 26 19 61 29 64 74 10 5 20 31 60 82 78
100 100 100 100 99 99 100 100 100 98 100 100 100 94 100 100 100 100 98 40 38 21 12 14 12 11 5 5 11 5 5 36 50 56 39 55 61 66 63 57 53 62 65 68
100 100 100 100 100 100 97 99 100 100 100 100 100 100 100 100 71 29 16 15 17 5 23 5 2 4 5 5 55 5 6 59 49 67 73 62 64 59 78 89 78 88 65 53
100 78 93 100 100 100 50 29 29 47 62 25 25 24 7 13 19 70 54 55 14 17 14 5 5 5 6 63 30 67 27 64 61 78 100 100 98 99 100 99 99 99 100 94
100 100 90 56 20 91 60 39 5 26 15 54 76 51 16 5 11 40 60 58 35 12 5 5 5 19 14 78 64 58 39 11 38 54 52 61 84 96 97 100 100 100 100 98
62 37 39 34 19 48 58 61 45 32 9 27 65 86 91 75 54 67 54 35 6 38 5 5 5 5 5 14 98 26 81 81 43 61 64 34 48 98 95 90 69 95 89 100
75 19 32 42 33 24 73 77 34 34 61 55 72 97 82 73 38 32 47 27 22 48 81 14 14 5 5 5 50 100 96 59 69 100 100 82 100 100 100 98 100 98 94 100
5 5 5 8 45 77 43 61 83 100 100 100 83 99 99 87 87 62 10 5 28 17 5 5 9 73 18 5 21 67 98 100 96 100 100 67 47 57 76 90 94 100 100 97
5 35 94 100 90 52 44 82 98 78 65 60 74 96 93 87 72 92 99 89 51 61 73 50 79 84 92 97 97 96 43 67 86 90 92 75 58 81 69 62 98 100 89 74
85 100 66 26 60 55 60 54 86 96 82 99 71 61 47 85 90 100 100 100 99 100 94 97 100 100 100 100 98 96 69 87 100 100 100 93 86 100 89 95 79 84 100 100

GFSNGP_prec_cloud_105.txt.gz
Cloud_Cover
100 91 11 5 4 1 5 5 11 0 0 0 0 38 66 90 66 97 100 100 100 100 100 100 100 100 100 100 100 100 100 100 100 100 100 100 100 100 100 100 100 100 100 95
40 5 1 3 0 0 0 0 0 0 0 0 19 76 34 82 100 100 100 100 100 100 100 100 100 100 100 100 100 100 100 100 100 100 100 100 100 100 100 100 100 100 100 100
7 5 0 0 1 34 67 95 86 91 14 8 100 86 86 100 100 100 100 100 100 100 100 100 100 100 100 100 100 100 100 100 100 100 100 100 100 100 100 100 100 100 100 100
5 1 0 0 47 55 96 97 58 56 100 91 91 100 100 100 100 100 100 100 100 100 100 100 100 100 100 100 100 100 100 100 100 100 100 100 100 100 100 100 100 100 100 100
4 26 0 7 68 87 97 90 100 100 100 100 100 100 100 100 100 100 100 100 100 100 100 100 100 100 100 100 100 100 100 100 100 100 100 100 100 100 100 100 100 100 100 100
39 7 8 96 65 100 100 100 100 100 100 100 100 100 100 100 100 100 100 100 100 100 100 100 100 100 100 100 100 100 100 100 100 100 100 100 100 100 100 100 100 100 100 100
98 97 12 86 100 100 100 100 100 100 100 100 100 100 100 100 100 100 100 100 100 100 100 100 100 100 100 100 100 100 100 100 100 100 100 100 100 100 100 100 100 100 100 100
100 97 96 100 100 100 100 100 100 100 100 100 100 100 100 100 100 100 100 100 100 100 100 100 100 100 100 100 100 100 100 100 100 100 100 100 100 100 100 100 100 100 100 100
100 100 100 100 100 100 100 100 100 100 100 100 100 100 100 100 100 100 100 100 100 100 100 100 100 100 100 100 100 100 100 100 100 100 100 100 100 100 100 100 100 100 100 100
100 100 100 100 100 100 100 100 100 100 100 100 100 100 100 100 100 100 100 100 100 100 95 92 81 81 90 89 100 100 100 100 100 100 100 100 100 100 100 100 100 100 100 100
100 100 100 100 100 100 100 100 100 100 100 100 100 100 100 100 100 100 100 100 100 98 83 87 9 12 66 56 62 96 99 100 100 100 100 100 100 100 100 100 100 100 100 100
100 100 100 100 100 100 100 100 100 100 100 100 100 100 100 100 100 100 100 99 73 99 90 100 50 78 62 52 67 95 98 90 65 91 100 100 100 100 100 100 100 100 100 100
100 100 100 100 100 100 100 100 100 100 100 100 100 100 100 100 100 100 100 86 67 52 14 89 100 88 79 14 89 76 100 100 99 77 54 61 86 100 100 100 100 100 100 100
100 100 100 100 100 100 100 100 100 100 100 100 100 100 100 100 100 83 73 15 5 5 5 38 89 92 100 33 6 70 27 19 5 31 65 30 59 78 67 99 100 100 100 100
100 100 100 100 100 100 100 100 100 100 100 100 100 100 99 75 86 59 6 5 5 5 5 5 6 45 12 5 5 8 34 5 20 19 41 95 100 89 65 84 100 100 100 92
99 100 100 100 100 100 100 100 100 100 100 100 99 96 92 76 88 34 5 5 5 5 5 15 65 90 56 5 5 5 6 21 5 5 5 5 38 96 100 100 100 100 98 100
100 96 90 100 100 100 100 100 100 100 100 100 81 86 80 6 59 99 71 12 4 4 5 12 82 5 41 5 5 7 5 6 34 58 5 12 59 56 38 23 87 100 56 28
82 48 15 46 78 84 96 99 100 100 100 92 64 50 54 72 62 74 81 58 7 7 5 5 5 6 5 13 5 18 67 71 77 98 100 94 80 77 88 99 100 98 82 14
100 95 83 86 70 82 96 98 99 96 93 76 60 63 43 90 100 95 94 100 75 29 13 5 5 47 5 14 5 5 26 69 77 76 76 38 97 100 100 100 100 100 100 86
100 100 100 100 99 83 100 100 99 77 57 60 72 90 87 65 62 45 48 24 7 6 5 5 5 6 57 5 5 5 5 10 55 96 83 96 100 100 100 94 100 100 100 100
100 100 100 100 100 100 92 72 91 97 96 9 5 5 5 47 62 59 56 37 23 24 13 8 5 5 5 24 5 5 5 50 62 56 62 29 40 37 62 89 100 100 100 100
100 100 100 100 83 72 58 38 10 5 5 10 29 18 37 11 5 5 15 13 6 5 5 5 5 7 22 29 15 44 37 28 5 18 67 79 99 94 69 31 85 100 100 100
100 100 100 100 59 7 5 24 55 41 22 38 8 5 10 56 51 48 36 7 5 16 5 7 34 10 5 10 8 8 33 37 64 76 80 89 99 100 98 87 28 92 99 100
63 19 5 5 5 5 5 8 46 64 6 5 22 56 75 49 33 9 16 39 12 69 100 100 97 98 99 90 97 100 99 100 99 99 100 89 100 100 100 100 94 75 84 89
5 5 5 5 5 6 54 49 6 5 11 28 31 20 57 62 89 97 100 100 100 100 98 93 100 100 100 100 100 100 100 100 100 100 100 100 100 100 100 100 100 100 98 73
5 5 5 5 28 87 100 100 100 44 14 35 95 86 67 85 95 96 100 100 100 99 100 92 82 80 91 93 98 100 100 100 100 100 100 100 100 100 100 100 100 100 100 100
5 10 5 52 97 100 100 100 65 89 65 48 49 29 58 91 100 99 98 100 89 60 74 96 99 84 80 96 100 100 100 100 100 100 100 100 100 100 100 100 100 100 100 100

GFSNGP_prec_cloud_108.txt.gz
Cloud_Cover
100 100 100 100 100 100 100 100 51 6 0 5 0 0 26 64 14 52 66 67 100 99 100 100 100 100 100 100 100 100 100 100 100 100 100 100 100 100 100 100 100 100 100 100
100 100 100 100 99 16 5 5 0 0 0 0 4 9 98 85 60 66 95 100 100 100 100 100 100 100 100 100 100 100 100 100 100 100 100 100 100 100 100 100 100 100 100 100
100 100 68 7 56 5 3 24 62 70 17 100 92 85 100 100 86 98 100 100 100 100 100 100 100 100 100 100 100 100 100 100 100 100 100 100 100 100 100 100 100 100 100 100
88 99 20 33 69 40 64 63 93 84 80 70 99 100 100 100 100 100 100 100 100 100 100 100 100 100 100 100 100 100 100 100 100 100 100 100 100 100 100 100 100 100 100 100
85 29 3 5 66 76 86 98 83 86 100 100 98 99 100 100 100 100 100 100 100 100 100 100 100 100 100 100 100 100 100 100 100 100 100 100 100 100 100 100 100 100 100 100
100 100 77 98 97 100 98 100 95 100 100 100 100 100 100 100 100 100 100 100 100 100 100 100 100 100 100 100 100 100 100 100 100 100 100 100 100 100 100 100 100 100 100 100
100 100 100 90 84 98 100 100 100 100 100 100 100 100 100 100 100 100 100 100 100 100 100 100 100 100 100 100 100 100 100 100 100 100 100 100 100 100 100 100 100 100 100 100
100 100 99 92 100 100 100 100 100 100 100 100 100 100 100 100 100 100 100 100 100 100 100 100 100 100 100 100 100 100 100 100 100 100 100 100 100 100 100 100 100 100 100 100
100 100 100 100 100 100 100 100 100 100 100 100 100 100 100 100 100 100 100 100 100 100 100 100 100 100 100 100 100 100 100 100 100 100 100 100 100 100 100 100 100 100 100 100
100 100 100 100 100 100 100 100 100 100 100 100 100 100 100 100 100 100 100 100 100 100 100 100 100 100 100 100 100 100 100 100 100 100 100 100 100 100 100 100 100 100 100 100
100 100 100 100 100 100 100 100 100 100 100 100 100 100 100 100 100 100 100 100 100 100 100 100 100 32 100 97 100 100 100 100 100 100 100 100 100 100 100 100 100 100 100 100
100 100 100 100 100 100 100 100 100 100 100 100 100 100 100 100 100 100 100 100 100 100 94 96 94 85 23 55 70 88 89 100 100 100 100 100 100 100 100 100 100 100 100 100
100 100 100 100 100 100 100 100 100 100 100 100 100 100 100 100 100 100 100 100 100 100 99 10 5 67 92 74 66 61 81 99 88 100 100 100 100 100 100 100 100 100 100 100
100 100 100 100 100 100 100 100 100 100 100 100 100 100 100 100 100 100 100 100 100 87 5 5 5 21 91 63 88 79 43 56 11 5 18 99 100 100 100 100 100 100 100 100
100 100 100 100 100 100 100 100 100 100 100 100 97 82 78 82 79 23 14 32 16 5 5 5 7 59 70 65 84 36 91 54 67 62 61 58 59 70 82 94 100 100 100 100
100 100 100 100 100 100 100 100 100 100 100 100 100 100 99 80 15 5 5 5 5 5 5 75 73 98 87 85 74 69 36 8 31 71 72 66 63 18 50 58 74 78 51 44
100 100 100 100 100 100 100 100 100 100 100 100 98 70 66 75 37 6 6 5 5 5 5 5 72 73 99 81 77 69 69 82 59 85 73 71 79 84 80 94 89 83 99 28
100 100 100 100 100 100 100 100 100 97 99 79 64 60 72 24 5 41 26 36 15 5 12 14 62 72 67 61 34 5 7 5 5 32 79 100 92 100 100 100 100 100 100 89
100 99 93 90 98 99 100 100 100 98 89 76 84 94 73 20 41 11 5 30 30 56 56 44 18 26 14 5 4 5 5 53 42 8 80 53 100 100 100 100 100 100 100 100
100 99 98 83 83 95 90 96 99 81 73 82 72 79 99 67 15 30 40 33 26 11 8 5 5 5 5 5 2 5 81 98 66 87 96 96 100 100 100 99 99 100 100 100
100 100 100 100 100 100 100 90 83 100 98 98 48 10 9 21 70 31 46 5 29 5 5 5 4 5 4 5 5 99 100 100 100 100 100 100 100 100 100 100 100 100 100 100
100 100 100 100 100 100 100 99 64 17 5 5 25 33 8 13 9 5 17 7 12 5 7 5 16 11 5 13 96 100 100 100 100 100 100 100 100 100 100 100 100 100 100 100
100 100 100 100 100 97 68 22 5 34 20 22 5 6 26 5 24 70 88 22 38 23 68 94 84 72 70 95 100 100 100 100 100 100 100 100 100 100 100 100 100 100 100 100
100 100 100 100 100 36 5 5 37 21 16 5 6 15 42 95 92 91 45 52 82 94 96 88 87 98 100 100 100 100 100 100 100 100 100 100 100 100 100 100 100 100 100 100
98 50 23 10 5 5 5 30 70 76 65 36 30 29 17 42 97 100 100 100 80 86 100 96 98 96 100 100 100 100 100 100 100 100 100 100 100 100 100 100 100 100 100 100
8 5 5 5 5 47 88 96 88 82 86 100 100 100 100 99 99 98 100 99 100 100 100 100 100 100 100 100 100 100 100 100 100 100 100 100 100 100 100 100 100 100 100 100
92 12 5 22 85 95 91 97 98 100 99 100 99 100 100 100 100 100 100 100 100 100 100 100 100 100 100 100 100 100 100 100 100 100 100 100 100 100 100 100 100 100 100 100

GFSNGP_prec_cloud_111.txt.gz
Cloud_Cover
100 100 100 100 100 100 100 100 79 100 92 100 100 78 16 32 13 6 58 90 83 81 62 100 100 100 100 100 100 100 100 100 100 100 100 100 100 100 100 100 100 100 100 100
100 100 100 100 100 100 100 100 100 100 100 99 5 4 4 6 12 95 100 100 89 76 94 100 100 100 100 100 100 100 100 100 100 100 100 100 100 100 100 100 100 100 100 100
100 100 99 98 100 100 100 52 8 4 4 100 58 82 87 100 100 100 100 100 98 100 100 100 100 100 100 100 100 100 100 100 100 100 100 100 100 100 100 100 100 100 100 100
100 100 52 22 91 32 5 5 26 75 100 70 84 100 100 100 100 100 100 100 100 100 100 100 100 100 100 100 100 100 100 100 100 100 100 100 100 100 100 100 100 100 100 100
100 100 76 24 46 30 88 10 44 88 100 100 100 100 100 100 100 100 100 100 100 100 100 100 100 100 100 100 100 100 100 100 100 100 100 100 100 100 100 100 100 100 100 100
100 100 100 98 79 88 72 53 100 97 100 100 91 100 100 100 100 100 100 100 100 100 100 100 100 100 100 100 100 100 100 100 100 100 100 100 100 100 100 100 100 100 100 100
100 100 100 100 88 85 99 99 92 99 100 100 100 100 100 100 100 100 100 100 100 100 100 100 100 100 100 100 100 100 100 100 100 100 100 100 100 100 100 100 100 100 100 100
100 100 100 74 96 96 100 96 100 100 100 100 100 100 100 100 100 100 100 100 100 100 100 100 100 100 100 100 100 100 100 100 100 100 100 100 100 100 100 100 100 100 100 100
82 100 97 100 99 100 100 100 100 100 100 100 100 100 100 100 100 100 100 100 100 100 100 100 100 100 100 100 100 100 100 100 100 100 100 100 100 100 100 100 100 100 100 100
94 100 100 100 100 100 100 100 100 100 100 100 100 100 100 100 100 100 100 100 100 100 100 100 100 100 100 100 100 100 100 100 100 100 100 100 100 100 100 100 100 100 100 100
97 100 100 100 100 100 100 100 100 100 100 100 100 100 100 100 100 100 100 100 100 100 100 100 100 100 97 93 100 100 100 100 100 100 100 100 100 100 100 100 100 100 100 100
100 100 100 100 100 100 100 100 100 100 100 100 100 100 100 100 100 100 100 100 100 100 100 100 100 100 100 100 100 89 100 100 100 100 100 100 100 100 100 100 100 100 100 100
100 100 100 100 100 100 100 100 100 100 100 100 100 100 100 100 100 100 100 100 100 100 100 100 100 100 96 5 81 37 40 84 100 100 100 100 100 100 100 100 100 100 100 100
100 100 100 100 100 100 100 100 100 100 100 100 100 100 100 100 100 100 100 100 100 100 100 100 97 83 99 48 10 33 72 42 74 72 90 100 100 100 100 100 100 100 99 100
100 100 100 100 100 100 100 100 100 100 100 100 100 100 100 100 100 100 100 100 100 100 88 8 16 79 99 93 97 78 9 91 88 84 70 62 77 89 100 100 100 100 100 100
100 100 100 100 100 100 100 100 100 100 100 100 100 100 75 44 29 98 18 11 21 43 68 50 78 100 78 93 59 70 65 5 41 81 79 88 91 86 84 98 98 100 100 100
100 100 100 100 100 100 100 100 100 100 100 87 87 56 63 17 5 64 98 98 98 96 51 61 78 35 21 5 77 46 64 36 6 54 60 72 73 87 100 100 100 100 100 19
100 100 100 100 100 100 100 100 100 100 94 57 71 59 64 58 5 5 5 55 53 8 5 58 78 76 16 23 5 5 31 49 5 16 67 94 95 100 100 100 100 100 100 100
99 100 100 100 100 100 100 100 100 98 91 81 82 82 68 19 5 5 20 45 86 87 42 7 41 55 5 0 5 41 67 90 46 81 96 99 100 100 100 100 100 100 100 100
100 98 99 100 97 100 99 93 100 100 79 84 84 71 5 8 5 68 56 39 53 9 5 5 5 5 5 2 5 66 100 100 99 100 100 100 100 100 100 100 100 100 100 100
100 100 99 98 97 100 100 100 95 78 73 59 60 54 51 47 9 59 85 76 64 5 2 4 5 4 5 5 19 100 100 100 100 100 100 100 100 100 100 100 100 100 100 100
100 100 100 100 100 100 100 100 98 76 67 65 53 45 11 19 18 5 5 31 39 5 66 92 77 10 15 16 96 100 100 100 100 100 100 100 100 100 100 100 100 100 100 100
100 100 100 100 100 100 100 100 63 49 21 5 6 41 90 94 99 100 100 25 100 38 99 97 63 83 87 100 100 100 100 100 100 100 100 100 100 100 100 100 100 100 100 100
100 100 100 100 100 100 100 27 5 5 5 30 65 27 82 100 91 100 97 38 9 53 88 84 79 57 72 100 100 100 100 100 100 100 100 100 100 100 100 100 100 100 100 100
100 100 100 100 100 100 67 5 5 5 5 39 28 28 52 98 100 100 100 99 47 77 100 56 92 72 100 100 100 100 100 100 100 100 100 100 100 100 100 100 100 100 100 100
100 100 76 60 5 5 5 5 5 39 96 100 100 100 100 100 100 98 100 97 100 98 100 100 100 100 100 100 100 100 100 100 100 100 100 100 100 100 100 100 100 100 100 100
97 87 73 24 9 7 44 93 99 100 100 100 100 100 100 100 100 100 100 100 100 100 100 100 100 100 100 100 100 100 100 100 100 100 100 100 100 100 100 100 100 100 100 100

GFSNGP_prec_cloud_114.txt.gz
Cloud_Cover
100 100 100 100 100 100 98 100 96 100 100 100 100 100 99 100 100 15 36 91 100 100 100 100 100 56 75 76 100 100 100 100 100 100 100 100 100 100 100 100 100 100 100 100
100 100 100 89 100 100 100 100 100 100 100 100 100 100 100 100 100 100 100 100 100 100 88 100 82 100 100 100 100 100 100 100 100 100 100 100 100 100 100 100 100 100 100 100
100 99 100 75 93 71 100 100 99 100 100 100 100 99 85 74 59 71 100 100 100 95 97 100 100 100 100 100 100 100 100 100 100 100 100 100 100 100 100 100 100 100 100 100
83 85 25 83 44 100 100 100 100 92 29 52 74 98 59 97 100 98 100 98 94 99 100 100 100 100 100 100 100 100 100 100 100 100 100 100 100 100 100 100 100 100 100 100
40 84 100 98 100 100 100 100 76 97 79 94 88 57 100 100 100 100 92 96 100 100 100 100 100 100 100 100 100 100 100 100 100 100 100 100 100 100 100 100 100 100 100 100
99 100 71 73 93 100 80 49 70 86 100 100 100 99 100 100 97 94 100 100 100 100 100 100 100 100 100 100 100 100 100 100 100 100 100 100 100 100 100 100 100 100 100 100
59 96 89 78 54 88 93 58 100 91 92 100 99 94 100 91 100 100 100 100 100 100 100 100 100 100 100 100 100 100 100 100 100 100 100 100 100 100 100 100 100 100 100 100
90 100 97 28 80 78 90 98 80 100 100 100 99 100 100 100 100 100 100 100 100 100 100 100 100 100 100 100 100 100 100 100 100 100 100 100 100 100 100 100 100 100 100 100
96 98 99 99 99 100 98 100 100 100 100 100 100 100 100 100 100 100 100 100 100 100 100 100 100 100 100 100 100 100 100 100 100 100 100 100 100 100 100 100 100 100 100 100
52 96 100 100 100 100 100 100 100 100 100 100 100 100 100 100 100 100 100 100 100 100 100 100 100 100 100 100 100 100 100 100 100 100 100 100 100 100 100 100 100 100 100 100
86 96 100 100 100 100 100 100 100 100 100 100 100 100 100 100 100 100 100 100 100 100 100 100 100 100 100 100 100 100 100 100 100 100 100 100 100 100 100 100 100 100 100 100
100 82 96 100 100 100 100 100 100 100 100 100 100 100 100 100 100 100 100 100 100 100 100 100 100 100 100 100 100 100 100 79 65 100 100 100 100 100 100 100 100 100 100 100
81 99 100 100 100 100 100 100 100 100 100 100 100 100 100 100 100 100 100 100 100 100 100 100 100 100 100 100 100 100 90 95 100 95 100 100 100 100 100 100 100 100 100 100
100 86 97 100 100 100 100 100 100 100 100 100 100 100 100 100 100 100 100 100 100 100 100 100 100 100 100 100 100 99 15 31 35 19 71 84 100 100 100 100 100 100 100 100
100 100 100 100 100 100 100 100 100 100 100 100 100 100 100 100 100 100 100 100 100 100 100 100 99 100 100 80 100 76 3 42 76 43 5 5 5 53 98 100 100 100 100 100
100 100 100 100 100 100 100 100 100 100 100 100 100 100 100 100 100 100 100 100 100 100 100 100 100 95 72 7 35 25 16 4 5 5 5 5 60 64 78 31 52 86 76 100
100 100 100 100 100 100 100 100 100 100 100 100 100 100 99 94 63 65 98 98 100 100 100 100 100 100 99 100 93 5 5 5 5 5 16 5 35 5 5 6 94 100 95 32
100 100 100 100 100 100 100 100 100 100 100 93 97 95 87 86 86 68 78 96 99 99 66 9 5 5 4 1 5 9 5 5 16 56 5 9 14 16 70 18 45 15 83 98
100 100 100 100 100 100 100 100 100 100 100 100 99 99 87 66 47 62 74 73 100 7 5 5 1 0 0 2 10 14 69 56 82 88 32 61 82 26 98 97 40 78 57 100
99 94 100 100 100 100 100 100 100 100 100 93 94 98 98 99 78 44 39 29 5 12 2 0 5 5 0 0 46 93 100 100 86 88 95 96 92 89 100 100 100 100 100 100
87 94 89 91 97 100 100 100 100 100 100 88 98 96 97 100 73 46 88 88 5 2 8 32 2 1 1 4 93 98 100 100 92 98 99 97 100 100 100 99 100 100 100 100
100 100 100 100 100 100 100 100 100 98 99 99 99 88 67 14 5 5 32 15 3 5 93 62 5 24 4 58 93 99 99 98 94 93 100 100 98 92 94 100 100 100 100 100
100 100 100 100 100 100 100 100 100 100 86 41 7 19 83 96 99 97 79 13 84 5 100 74 7 5 16 93 99 96 49 99 53 100 100 84 64 100 53 94 89 100 100 100
100 100 100 100 100 100 100 100 100 89 37 5 78 23 67 48 37 21 5 5 5 5 52 31 5 5 95 99 86 46 83 87 100 79 95 89 54 7 92 100 97 100 87 100
100 100 100 100 100 100 100 100 100 61 5 38 69 65 92 37 96 98 96 91 6 100 100 87 18 5 27 100 44 84 98 100 92 89 72 5 60 97 87 94 91 84 62 74
100 100 100 100 100 87 92 100 100 76 84 92 93 99 94 76 48 63 14 87 44 49 27 88 66 88 69 62 87 82 19 99 89 67 9 89 98 86 91 98 74 94 64 84
100 97 100 100 100 58 5 72 87 85 100 83 92 99 96 55 65 60 73 94 100 44 100 100 100 99 69 62 84 92 100 99 92 34 97 99 84 90 99 38 84 96 96 100

GFSNGP_prec_cloud_117.txt.gz
Cloud_Cover
100 100 100 100 100 100 100 100 100 100 100 100 100 99 100 100 100 100 100 100 100 100 100 100 100 82 83 100 98 100 95 97 100 100 100 100 100 100 100 100 100 100 100 100
100 100 100 100 100 100 100 100 100 100 100 100 42 17 63 100 39 21 100 100 100 100 100 100 100 100 100 100 81 100 100 100 100 100 100 100 100 100 100 100 100 100 100 100
87 85 25 34 86 97 100 100 61 23 68 99 100 100 100 55 33 60 100 100 100 100 96 84 90 92 86 87 95 100 100 100 100 100 100 100 100 100 100 100 100 100 100 100
100 100 40 100 100 100 100 65 5 6 18 36 90 100 100 98 92 100 100 100 92 75 74 98 99 88 96 98 100 100 100 100 100 100 100 100 100 100 100 100 100 100 100 100
100 100 100 98 100 100 100 100 100 100 81 54 64 22 100 100 100 86 74 83 90 92 100 100 100 100 100 100 100 100 100 100 100 100 100 100 100 100 100 100 100 100 100 100
100 100 100 100 98 7 34 46 6 5 6 94 98 58 98 100 84 76 83 76 99 100 100 100 100 100 100 100 100 100 100 100 100 100 100 100 100 100 100 100 100 100 100 100
100 100 100 99 20 67 71 21 100 42 30 90 93 82 100 93 100 97 100 100 100 100 100 100 100 100 100 100 100 100 100 100 100 100 100 100 100 100 100 100 100 100 100 100
100 100 87 6 23 69 74 95 58 96 99 100 100 91 88 100 100 100 100 100 100 100 100 100 100 100 100 100 100 100 100 100 100 100 100 100 100 100 100 100 100 100 100 100
100 70 86 83 84 87 100 99 99 100 100 100 100 100 100 100 100 100 100 100 100 100 100 100 100 100 100 100 100 100 100 100 100 100 100 100 100 100 100 100 100 100 100 100
31 52 100 100 100 100 100 100 100 100 100 100 100 100 100 100 100 100 100 100 100 100 100 100 100 100 100 100 100 100 100 100 100 100 100 100 100 100 100 100 100 100 100 100
84 95 100 100 100 100 100 100 100 100 100 100 100 100 100 100 100 100 100 100 100 100 100 100 100 100 100 100 100 100 100 100 100 100 100 100 100 100 100 100 100 100 100 100
86 30 75 76 100 100 100 100 100 100 100 100 100 100 100 100 100 100 100 100 100 100 100 100 100 100 100 100 100 100 100 100 100 100 100 100 100 100 100 100 100 100 100 100
99 97 12 46 100 100 100 100 100 100 100 100 100 100 100 100 100 100 100 100 100 100 100 100 100 100 100 100 100 100 100 100 100 100 100 100 100 100 100 100 100 100 100 100
25 93 86 99 100 100 100 100 100 100 100 100 100 100 100 100 100 100 100 100 100 100 100 100 100 100 100 100 100 100 100 94 7 5 5 5 5 77 100 100 100 100 100 100
87 89 100 100 100 100 100 100 100 100 100 100 100 100 100 100 100 100 100 100 100 100 100 100 100 100 100 100 98 68 13 5 5 5 5 5 5 5 9 72 97 100 100 100
100 94 100 100 100 100 100 100 100 100 100 100 100 100 100 100 100 100 100 100 100 100 100 100 100 100 100 89 17 5 5 5 5 5 5 5 19 5 5 5 27 100 82 97
99 94 100 100 100 100 100 100 100 100 100 100 100 100 100 100 100 100 100 100 100 100 100 100 100 93 47 88 88 6 5 5 7 29 29 5 5 5 5 5 5 5 56 21
92 100 100 100 100 100 100 100 100 100 100 100 100 100 100 100 99 100 98 100 100 100 100 100 100 100 100 100 80 71 9 5 5 5 3 5 5 5 5 5 5 5 30 6
95 100 100 100 100 100 100 100 100 100 100 100 100 100 100 84 95 98 100 100 84 82 88 90 58 20 5 5 5 5 5 5 5 5 12 41 6 5 5 5 36 16 22 16
100 97 79 100 100 100 100 100 100 100 100 100 100 100 100 100 100 100 87 65 52 96 38 4 1 0 0 5 38 5 5 5 5 5 5 5 34 81 80 42 66 73 84 100
75 70 78 72 85 99 100 100 100 100 100 100 100 100 98 99 100 100 93 42 5 37 8 5 3 5 0 23 15 25 5 5 5 86 95 63 38 17 6 56 53 76 88 67
95 90 85 92 100 97 94 100 100 100 100 100 100 97 87 91 88 95 79 52 41 49 14 51 12 31 24 94 100 62 5 5 54 42 85 86 69 92 99 94 89 100 96 100
100 100 100 100 100 100 100 100 100 100 100 100 100 100 100 100 98 74 40 26 18 52 38 55 39 26 92 96 66 5 5 39 56 90 25 5 55 79 99 100 100 100 99 100
100 100 100 100 100 100 100 100 100 100 100 100 100 89 97 92 100 98 82 91 85 81 90 62 5 6 37 40 11 5 37 70 82 10 5 41 53 59 100 100 100 100 80 72
100 100 100 100 100 100 100 100 100 100 100 100 87 100 97 100 100 99 98 86 30 64 29 21 5 5 5 5 5 5 76 85 56 6 64 90 83 85 97 18 20 25 5 48
100 100 100 100 100 100 100 100 100 100 100 100 98 99 100 92 82 91 94 80 28 88 100 97 68 19 5 5 5 5 50 22 5 62 99 24 26 96 19 6 36 5 44 96
100 100 100 100 100 100 100 100 100 97 99 100 100 100 95 100 98 98 85 74 57 5 42 56 67 5 5 5 5 5 44 5 5 57 100 34 41 7 6 76 31 92 100 100

GFSNGP_prec_cloud_120.txt.gz
Cloud_Cover
100 92 88 95 100 100 100 100 65 94 46 14 39 5 74 83 51 43 52 89 100 100 100 100 100 100 100 95 97 71 72 78 97 99 98 100 100 100 100 100 100 100 100 100
99 100 55 99 100 99 94 82 100 93 92 100 81 59 49 100 100 91 100 100 100 100 100 100 100 92 67 80 70 78 90 100 100 100 100 100 100 100 100 100 100 100 100 100
16 100 62 100 100 100 97 90 28 50 79 57 77 85 87 76 76 100 100 100 100 100 100 100 100 100 100 92 98 90 99 100 100 100 100 100 100 100 100 100 100 100 100 100
96 100 94 61 29 100 78 40 11 26 98 87 71 75 75 84 100 100 100 100 100 100 95 94 57 27 66 60 80 92 100 100 100 100 100 100 100 100 100 100 100 100 100 100
66 42 20 9 100 73 39 38 100 72 60 100 100 100 100 100 100 99 100 100 100 100 95 68 74 93 98 99 99 100 100 100 100 100 100 100 100 100 100 100 100 100 100 100
43 91 63 100 30 39 59 100 100 100 100 100 87 89 94 100 100 94 100 98 86 100 79 99 100 100 100 100 100 100 100 100 100 100 100 100 100 100 100 100 100 100 100 100
100 100 100 97 94 100 100 90 26 5 5 96 85 38 83 84 98 100 99 85 97 100 100 100 100 100 100 100 100 100 100 100 100 100 100 100 100 100 100 100 100 100 100 100
100 100 94 92 63 62 48 7 43 44 46 100 100 100 87 98 100 100 100 100 100 100 100 100 100 100 100 100 100 100 100 100 100 100 100 100 100 100 100 100 100 100 100 100
100 100 100 70 53 60 78 78 66 43 89 97 100 100 100 100 100 100 100 100 100 100 100 100 100 100 100 100 100 100 100 100 100 100 100 100 100 100 100 100 100 100 100 100
100 100 92 100 100 100 15 74 28 100 83 100 100 100 100 100 100 100 100 100 100 100 100 100 100 100 100 100 100 100 100 100 100 100 100 100 100 100 100 100 100 100 100 100
100 98 100 100 92 99 86 67 98 99 100 100 96 88 100 100 100 100 100 100 100 100 100 100 100 100 100 100 100 100 100 100 100 100 100 100 100 100 100 100 100 100 100 100
98 73 9 48 91 9 52 94 78 100 100 100 100 100 100 100 100 100 100 100 100 100 100 100 100 100 100 100 100 100 100 100 100 100 100 100 100 100 100 100 100 100 100 100
96 5 5 5 98 46 68 78 89 100 100 100 100 100 100 100 100 100 100 100 100 100 100 100 100 100 100 100 100 100 100 100 100 100 100 100 100 100 100 100 100 100 100 100
28 52 100 42 64 68 86 75 92 95 100 100 100 100 100 100 100 100 100 100 100 100 100 100 100 100 100 100 100 100 100 100 100 100 98 100 100 100 100 100 100 100 100 100
100 89 20 27 47 96 100 100 96 100 100 100 100 100 100 100 100 100 100 100 100 100 100 100 100 100 100 100 100 100 100 77 33 5 5 5 5 8 5 24 64 55 76 78
100 76 54 51 97 98 100 100 100 100 100 100 100 100 100 100 100 100 100 100 100 100 100 100 100 100 100 100 100 100 100 59 5 5 5 5 5 5 5 5 5 46 71 98
96 97 93 87 100 100 100 100 100 100 100 100 100 100 100 100 100 100 100 100 100 100 100 100 100 100 100 100 100 100 47 5 5 5 5 5 8 12 7 5 47 53 72 81
50 23 100 100 100 100 100 100 100 100 100 100 100 100 100 100 100 100 100 100 100 100 100 100 100 96 91 88 98 55 39 23 5 5 5 9 38 7 5 10 49 81 88 56
5 5 25 100 100 100 100 100 100 100 100 100 100 100 100 100 100 100 100 100 100 94 80 79 84 99 82 72 15 5 5 27 40 29 6 28 7 36 63 47 66 74 85 94
83 90 10 44 98 100 100 100 100 100 100 100 100 100 100 100 100 100 100 100 100 99 80 44 31 15 5 11 34 5 5 51 51 44 51 43 51 73 75 72 100 100 100 100
95 85 83 88 87 100 100 100 100 100 100 100 100 100 100 100 100 100 98 99 72 28 11 9 5 61 96 43 5 34 9 41 86 91 76 88 85 88 83 91 94 86 100 100
91 98 92 82 76 86 99 100 100 100 100 100 100 100 100 100 100 100 99 98 99 76 34 76 70 88 35 15 5 8 38 52 47 26 67 82 99 100 95 98 100 100 100 100
97 86 94 95 100 100 100 100 100 100 100 100 100 98 100 100 100 100 94 93 94 100 96 94 81 61 61 58 21 35 60 5 47 90 96 99 98 100 100 100 92 72 77 97
100 100 100 100 100 100 100 100 100 100 100 100 92 100 97 100 100 96 99 100 90 84 82 68 81 69 5 5 17 39 8 7 57 99 59 63 88 14 6 77 92 52 71 92
100 100 100 100 100 100 100 100 100 100 100 100 100 100 100 100 99 100 100 97 100 100 100 93 68 22 5 5 58 22 5 56 100 96 95 85 100 99 57 61 84 78 98 100
100 100 100 100 100 100 100 100 100 100 100 100 100 100 100 100 100 100 100 100 100 100 97 84 75 60 5 7 5 5 5 54 99 44 67 73 31 9 80 67 57 100 93 100
100 100 100 100 100 100 100 100 100 100 100 100 100 100 100 100 100 100 92 77 88 85 83 62 8 17 5 14 5 5 5 51 96 65 62 59 60 92 94 65 60 50 6 21